<- Previous Day | Today | Next Day ->

All Data for 24 June 2022

 

Time A - D Temp A - D Dew Point A - D Humidity A - D Pressure A - D Wind A - D Wind Dir Gust A - D Rain Rate A - D Rain Total
00:00 15.1 15.0 99 1008.6 5.4 S 6.9 0.0 0.0
00:01 15.1 15.0 99 1008.5 5.4 S 6.9 0.0 0.0
00:02 15.1 15.0 99 1008.5 4.5 SE 6.9 0.0 0.0
00:03 15.1 15.0 99 1008.5 5.4 S 6.9 0.0 0.0
00:04 15.1 15.0 99 1008.5 5.4 S 6.9 0.0 0.0
00:05 15.1 15.0 99 1008.4 3.8 SW 6.9 0.0 0.0
00:06 15.0 14.9 99 1008.5 4.5 S 6.9 0.0 0.0
00:07 15.0 14.9 99 1008.6 4.5 S 6.9 0.0 0.0
00:09 15.0 14.9 99 1008.6 4.5 S 6.9 0.0 0.0
00:10 15.0 14.9 99 1008.7 3.8 S 6.9 0.0 0.0
00:11 15.0 14.9 99 1008.6 3.8 S 6.9 0.0 0.0
00:12 15.0 14.9 99 1008.5 4.5 S 5.4 0.0 0.0
00:13 15.0 14.9 99 1008.5 5.4 S 5.4 0.0 0.0
00:14 15.0 14.9 99 1008.6 5.4 S 5.4 0.0 0.0
00:15 15.0 14.9 99 1008.6 3.8 S 5.4 0.0 0.0
00:16 15.0 14.9 99 1008.6 3.8 S 5.4 0.0 0.0
00:17 15.0 14.9 99 1008.7 4.5 SE 5.4 0.0 0.0
00:18 15.0 14.9 99 1008.4 6.0 S 6.0 0.0 0.0
00:19 15.0 14.9 99 1008.5 6.0 SW 6.0 0.0 0.0
00:20 15.0 14.9 99 1008.6 6.9 S 6.9 0.0 0.0
00:21 15.0 14.9 99 1008.7 4.5 SW 6.9 0.0 0.0
00:22 15.0 14.9 99 1008.5 3.8 S 6.9 0.0 0.0
00:23 15.0 14.9 99 1008.5 4.5 S 6.9 0.0 0.0
00:24 15.0 14.9 99 1008.4 4.5 S 6.9 0.0 0.0
00:26 15.0 14.9 99 1008.5 3.8 S 6.9 0.0 0.0
00:27 15.0 14.9 99 1008.3 4.5 SW 6.9 0.0 0.0
00:28 15.0 14.9 99 1008.5 3.8 S 6.9 0.0 0.0
00:29 15.0 14.9 99 1008.5 3.8 S 6.9 0.0 0.0
00:30 15.0 14.9 99 1008.6 5.4 S 6.9 0.0 0.0
00:31 14.9 14.8 99 1008.2 5.4 S 5.4 0.0 0.0
00:32 14.9 14.8 99 1008.4 4.5 S 5.4 0.0 0.0
00:33 14.9 14.8 99 1008.3 4.5 SW 5.4 0.0 0.0
00:34 14.9 14.8 99 1008.5 7.6 SW 7.6 0.0 0.0
00:35 15.0 14.9 99 1008.5 7.6 NW 7.6 0.0 0.0
00:36 15.0 14.9 99 1008.4 7.6 NW 7.6 0.0 0.0
00:37 15.0 14.9 99 1008.4 3.8 S 7.6 0.0 0.0
00:38 15.0 14.9 99 1008.5 5.4 SW 7.6 0.0 0.0
00:39 15.0 14.9 99 1008.5 5.4 SSW 7.6 0.0 0.0
00:40 15.0 14.9 99 1008.3 6.0 S 7.6 0.0 0.0
00:42 15.0 14.9 99 1008.5 7.6 S 7.6 0.0 0.0
00:43 15.0 14.9 99 1008.3 7.6 S 7.6 0.0 0.0
00:44 15.0 15.0 100 1008.3 6.9 SW 7.6 0.0 0.0
00:45 15.0 15.0 100 1008.3 6.9 SW 7.6 0.0 0.0
00:46 15.0 15.0 100 1008.3 6.9 SW 7.6 0.0 0.0
00:47 15.0 15.0 100 1008.3 6.0 SE 7.6 0.0 0.0
00:48 15.0 15.0 100 1008.3 3.8 SW 7.6 0.0 0.0
00:49 15.0 15.0 100 1008.3 5.4 SW 7.6 0.0 0.0
00:50 15.0 15.0 100 1008.4 4.5 SW 7.6 0.0 0.0
00:51 15.0 15.0 100 1008.2 4.5 S 7.6 0.0 0.0
00:52 15.1 15.1 100 1008.4 4.5 SW 7.6 0.0 0.0
00:53 15.1 15.1 100 1008.2 5.4 S 7.6 0.0 0.0
00:54 15.1 15.1 100 1008.4 5.4 SW 6.9 0.0 0.0
00:55 15.1 15.1 100 1008.3 4.5 SSW 6.9 0.0 0.0
00:56 15.1 15.1 100 1008.5 4.5 S 6.9 0.0 0.0
00:57 15.1 15.1 100 1008.1 4.5 SW 5.4 0.0 0.0
00:58 15.1 15.1 100 1008.3 5.4 SW 5.4 0.0 0.0
00:59 15.1 15.1 100 1008.4 5.4 SW 5.4 0.0 0.0
01:01 15.1 15.1 100 1008.4 4.5 SW 5.4 0.0 0.0
01:02 15.1 15.1 100 1008.3 4.5 SW 5.4 0.0 0.0
01:03 15.1 15.1 100 1008.3 4.5 SW 5.4 0.0 0.0
01:04 15.1 15.1 100 1008.5 4.5 SW 5.4 0.0 0.0
01:05 15.1 15.1 100 1008.2 4.5 SW 5.4 0.0 0.0
01:06 15.2 15.2 100 1008.2 5.4 SW 5.4 0.0 0.0
01:07 15.2 15.2 100 1008.2 4.5 S 5.4 0.0 0.0
01:08 15.2 15.2 100 1008.3 4.5 SW 5.4 0.0 0.0
01:09 15.2 15.2 100 1008.3 3.8 SW 5.4 0.0 0.0
01:10 15.2 15.2 100 1008.2 3.8 W 5.4 0.0 0.0
01:11 15.2 15.2 100 1008.3 6.0 W 6.0 0.0 0.0
01:12 15.2 15.2 100 1008.2 4.5 SW 6.0 0.0 0.0
01:13 15.2 15.2 100 1008.2 6.0 SW 6.0 0.0 0.0
01:14 15.2 15.2 100 1008.1 3.8 SW 6.0 0.0 0.0
01:15 15.2 15.2 100 1008.0 4.5 SW 6.0 0.0 0.0
01:17 15.2 15.2 100 1008.1 4.5 SW 6.0 0.0 0.0
01:18 15.2 15.2 100 1008.3 3.1 SW 6.0 0.0 0.0
01:19 15.3 15.3 100 1008.0 4.5 SW 6.0 0.0 0.0
01:20 15.3 15.3 100 1008.0 4.5 W 6.0 0.0 0.0
01:21 15.3 15.3 100 1008.0 3.8 W 6.0 0.0 0.0
01:22 15.3 15.3 100 1008.1 5.4 S 6.0 0.0 0.0
01:23 15.3 15.3 100 1008.0 5.4 SW 6.0 0.0 0.0
01:24 15.3 15.3 100 1007.9 4.5 SW 5.4 0.0 0.0
01:25 15.3 15.3 100 1007.9 5.4 S 5.4 0.0 0.0
01:26 15.3 15.3 100 1007.9 6.0 SW 6.0 0.0 0.0
01:27 15.3 15.3 100 1008.2 4.5 S 6.0 0.0 0.0
01:28 15.3 15.3 100 1007.8 3.8 SW 6.0 0.0 0.0
01:29 15.3 15.3 100 1008.0 3.8 SW 6.0 0.0 0.0
01:31 15.3 15.3 100 1008.0 4.5 WSW 6.0 0.0 0.0
01:32 15.3 15.3 100 1007.9 3.8 SW 6.0 0.0 0.0
01:33 15.3 15.3 100 1007.9 4.5 SW 6.0 0.0 0.0
01:34 15.4 15.4 100 1008.0 4.5 SW 6.0 0.0 0.0
01:35 15.4 15.4 100 1008.0 3.8 SW 6.0 0.0 0.0
01:36 15.4 15.4 100 1007.9 5.4 S 6.0 0.0 0.0
01:37 15.4 15.4 100 1008.0 5.4 S 5.4 0.0 0.0
01:38 15.4 15.4 100 1007.9 4.5 SW 6.0 0.0 0.0
01:39 15.4 15.4 100 1008.1 4.5 SW 6.0 0.0 0.0
01:40 15.4 15.4 100 1008.0 6.9 SW 6.9 0.0 0.0
01:41 15.4 15.4 100 1007.9 6.9 SW 6.9 0.0 0.0
01:42 15.4 15.4 100 1007.9 6.0 NE 6.9 0.0 0.0
01:43 15.4 15.4 100 1008.0 4.5 SW 6.9 0.0 0.0
01:45 15.4 15.4 100 1007.9 5.4 SW 6.9 0.0 0.0
01:46 15.4 15.4 100 1007.8 3.8 W 6.9 0.0 0.0
01:47 15.4 15.4 100 1007.9 4.5 SW 6.9 0.0 0.0
01:48 15.4 15.4 100 1007.7 3.1 SW 6.9 0.0 0.0
01:49 15.4 15.4 100 1007.9 3.8 SW 6.9 0.0 0.0
01:50 15.4 15.4 100 1007.8 3.8 SW 6.9 0.0 0.0
01:51 15.4 15.4 100 1007.8 4.5 S 6.9 0.0 0.0
01:52 15.4 15.4 100 1007.8 4.5 SW 6.0 0.0 0.0
01:53 15.4 15.4 100 1007.8 3.8 S 5.4 0.0 0.0
01:54 15.4 15.4 100 1007.7 3.8 S 5.4 0.0 0.0
01:55 15.4 15.4 100 1007.8 3.8 S 5.4 0.0 0.0
01:56 15.4 15.4 100 1007.7 3.8 SW 4.5 0.0 0.0
01:57 15.4 15.4 100 1007.8 4.5 SW 4.5 0.0 0.0
01:58 15.4 15.4 100 1007.8 2.2 SW 5.4 0.0 0.0
01:59 15.4 15.4 100 1007.6 3.1 S 5.4 0.0 0.0
02:00 15.4 15.4 100 1007.8 2.2 SW 5.4 0.0 0.0
02:02 15.4 15.4 100 1007.7 3.8 S 5.4 0.0 0.0
02:03 15.4 15.4 100 1007.7 3.8 S 5.4 0.0 0.0
02:04 15.4 15.4 100 1007.8 3.1 S 5.4 0.0 0.0
02:05 15.4 15.4 100 1007.8 3.1 S 5.4 0.0 0.0
02:06 15.4 15.4 100 1007.5 3.8 S 5.4 0.0 0.0
02:07 15.4 15.4 100 1007.8 3.8 S 5.4 0.0 0.0
02:08 15.4 15.4 100 1007.8 3.1 S 3.8 0.0 0.0
02:09 15.4 15.4 100 1007.9 3.1 S 3.8 0.0 0.0
02:10 15.4 15.4 100 1007.7 3.1 SW 3.8 0.0 0.0
02:11 15.4 15.4 100 1007.7 3.1 S 3.8 0.0 0.0
02:12 15.4 15.4 100 1007.7 3.1 SW 3.8 0.0 0.0
02:13 15.4 15.4 100 1007.8 2.2 SSW 3.8 0.0 0.0
02:14 15.4 15.4 100 1007.6 2.2 SW 3.8 0.0 0.0
02:16 15.4 15.4 100 1007.5 1.6 S 3.8 0.0 0.0
02:17 15.4 15.4 100 1007.4 2.2 S 3.1 0.0 0.0
02:18 15.4 15.4 100 1007.7 2.2 SW 3.1 0.0 0.0
02:19 15.4 15.4 100 1007.5 2.2 SW 3.1 0.0 0.0
02:20 15.4 15.4 100 1007.6 3.8 S 3.8 0.0 0.0
02:21 15.4 15.4 100 1007.7 3.8 S 3.8 0.0 0.0
02:22 15.4 15.4 100 1007.6 2.2 S 3.8 0.0 0.0
02:23 15.4 15.4 100 1007.6 2.2 S 3.8 0.0 0.0
02:24 15.4 15.4 100 1007.7 2.2 S 3.8 0.0 0.0
02:25 15.4 15.4 100 1007.6 2.2 S 3.8 0.0 0.0
02:26 15.4 15.4 100 1007.5 3.1 S 3.8 0.0 0.0
02:27 15.4 15.4 100 1007.7 3.8 S 3.8 0.0 0.0
02:28 15.4 15.4 100 1007.6 2.2 S 3.8 0.0 0.0
02:30 15.4 15.4 100 1007.5 3.1 S 3.8 0.0 0.0
02:31 15.4 15.4 100 1007.6 3.1 S 3.8 0.0 0.0
02:32 15.4 15.4 100 1007.5 2.2 S 3.8 0.0 0.0
02:33 15.4 15.4 100 1007.5 2.2 S 3.8 0.0 0.0
02:34 15.4 15.4 100 1007.5 2.2 S 3.8 0.0 0.0
02:35 15.4 15.4 100 1007.5 3.1 S 3.8 0.0 0.0
02:36 15.4 15.4 100 1007.6 3.1 S 3.8 0.0 0.0
02:37 15.4 15.4 100 1007.5 3.1 S 3.8 0.0 0.0
02:38 15.4 15.4 100 1007.4 3.1 S 3.1 0.0 0.0
02:39 15.4 15.4 100 1007.2 1.6 S 3.1 0.0 0.0
02:40 15.4 15.4 100 1007.4 0.7 SW 3.1 0.0 0.0
02:41 15.4 15.4 100 1007.4 1.6 SW 3.1 0.0 0.0
02:42 15.4 15.4 100 1007.3 2.2 SW 3.1 0.0 0.0
02:44 15.4 15.4 100 1007.1 2.2 S 3.1 0.0 0.0
02:45 15.4 15.4 100 1007.4 2.2 S 3.1 0.0 0.0
02:46 15.4 15.4 100 1007.3 3.1 SW 3.1 0.0 0.0
02:47 15.4 15.4 100 1007.3 3.1 S 3.1 0.0 0.0
02:48 15.4 15.4 100 1007.3 3.1 S 3.1 0.0 0.0
02:49 15.4 15.4 100 1007.3 3.1 S 3.1 0.0 0.0
02:50 15.4 15.4 100 1007.1 2.2 S 3.1 0.0 0.0
02:51 15.4 15.4 100 1007.1 3.1 SE 3.1 0.0 0.0
02:52 15.4 15.4 100 1007.2 3.1 SE 3.1 0.0 0.0
02:53 15.4 15.4 100 1007.3 2.2 S 3.1 0.0 0.0
02:54 15.4 15.4 100 1007.1 1.6 S 3.1 0.0 0.0
02:55 15.4 15.4 100 1007.2 2.2 S 3.1 0.0 0.0
02:56 15.4 15.4 100 1007.2 4.5 S 4.5 0.0 0.0
02:58 15.4 15.4 100 1007.1 3.8 S 4.5 0.0 0.0
02:59 15.4 15.4 100 1007.0 3.8 S 4.5 0.0 0.0
03:00 15.4 15.4 100 1006.9 4.5 S 4.5 0.0 0.0
03:01 15.4 15.4 100 1006.9 4.5 S 4.5 0.0 0.0
03:02 15.4 15.4 100 1006.8 4.5 S 4.5 0.0 0.0
03:03 15.4 15.4 100 1007.0 4.5 S 4.5 0.0 0.0
03:04 15.4 15.4 100 1006.8 4.5 S 4.5 0.0 0.0
03:05 15.4 15.4 100 1007.0 4.5 S 4.5 0.0 0.0
03:06 15.3 15.3 100 1006.8 2.2 S 4.5 0.0 0.0
03:07 15.3 15.3 100 1007.0 1.6 S 4.5 0.0 0.0
03:08 15.3 15.3 100 1006.8 2.2 S 4.5 0.0 0.0
03:09 15.3 15.3 100 1006.8 2.2 S 4.5 0.0 0.0
03:10 15.3 15.3 100 1006.9 2.2 S 4.5 0.0 0.0
03:12 15.3 15.3 100 1006.8 2.2 S 4.5 0.0 0.0
03:13 15.3 15.3 100 1006.9 3.1 S 4.5 0.0 0.0
03:14 15.3 15.3 100 1006.7 3.1 S 4.5 0.0 0.0
03:15 15.3 15.3 100 1006.7 2.2 S 4.5 0.0 0.0
03:16 15.3 15.3 100 1007.0 2.2 SW 3.1 0.0 0.0
03:17 15.3 15.3 100 1006.8 3.1 SW 3.1 0.0 0.0
03:18 15.3 15.3 100 1006.8 3.8 SW 3.8 0.0 0.0
03:19 15.3 15.3 100 1006.7 3.1 SW 3.8 0.0 0.0
03:20 15.3 15.3 100 1006.7 3.8 S 3.8 0.0 0.0
03:21 15.3 15.3 100 1006.5 3.8 W 3.8 0.0 0.0
03:22 15.3 15.3 100 1006.6 2.2 N 3.8 0.0 0.0
03:23 15.3 15.3 100 1006.7 2.2 NW 3.8 0.0 0.0
03:24 15.3 15.3 100 1006.5 1.6 W 3.8 0.0 0.0
03:26 15.3 15.3 100 1006.5 0.7 NW 3.8 0.0 0.0
03:27 15.3 15.3 100 1006.6 1.6 NW 3.8 0.0 0.0
03:28 15.2 15.2 100 1006.5 0.7 NW 3.8 0.0 0.0
03:29 15.2 15.2 100 1006.5 0.7 NW 3.8 0.0 0.0
03:30 15.2 15.2 100 1006.5 2.2 NW 3.8 0.0 0.0
03:31 15.2 15.2 100 1006.3 2.2 W 2.2 0.0 0.0
03:32 15.2 15.2 100 1006.5 0.7 W 2.2 0.0 0.0
03:33 15.2 15.2 100 1006.4 0.7 W 2.2 0.0 0.0
03:34 15.2 15.2 100 1006.6 0.7 W 2.2 0.0 0.0
03:35 15.2 15.2 100 1006.5 1.6 NW 2.2 0.0 0.0
03:36 15.2 15.2 100 1006.4 1.6 NW 2.2 0.0 0.0
03:37 15.2 15.2 100 1006.5 0.7 NW 2.2 0.0 0.0
03:38 15.2 15.2 100 1006.4 2.2 NW 2.2 0.0 0.0
03:40 15.2 15.2 100 1006.3 2.2 W 3.1 0.0 0.0
03:41 15.2 15.2 100 1006.4 1.6 N 3.1 0.0 0.0
03:42 15.2 15.2 100 1006.4 1.6 NW 3.1 0.0 0.0
03:43 15.2 15.2 100 1006.4 1.6 N 3.1 0.0 0.0
03:44 15.2 15.2 100 1006.3 3.1 NW 3.1 0.0 0.0
03:45 15.2 15.2 100 1006.2 3.1 N 3.1 0.0 0.0
03:46 15.2 15.2 100 1006.4 2.2 N 3.1 0.0 0.0
03:47 15.2 15.2 100 1006.3 2.2 SW 3.1 0.0 0.0
03:48 15.2 15.2 100 1006.5 0.7 NW 3.1 0.0 0.0
03:49 15.2 15.2 100 1006.4 0.7 NW 3.1 0.0 0.0
03:50 15.2 15.2 100 1006.1 0.0 NW 3.1 0.0 0.0
03:51 15.2 15.2 100 1006.4 0.7 N 3.1 0.0 0.0
03:52 15.2 15.2 100 1006.2 1.6 NW 3.1 0.0 0.0
03:54 15.2 15.2 100 1006.2 1.6 N 3.1 0.0 0.0
03:55 15.2 15.2 100 1006.2 0.7 N 3.1 0.0 0.0
03:56 15.2 15.2 100 1006.0 0.7 N 2.2 0.0 0.0
03:57 15.2 15.2 100 1006.0 0.7 N 2.2 0.0 0.0
03:58 15.2 15.2 100 1006.2 0.7 NW 1.6 0.0 0.0
03:59 15.2 15.2 100 1006.2 1.6 NW 1.6 0.0 0.0
04:00 15.2 15.2 100 1006.2 1.6 NW 1.6 0.0 0.0
04:01 15.2 15.2 100 1006.1 0.7 NW 1.6 0.0 0.0
04:02 15.2 15.2 100 1006.2 1.6 N 1.6 0.0 0.0
04:03 15.2 15.2 100 1006.1 0.7 N 1.6 0.0 0.0
04:04 15.2 15.2 100 1006.2 0.7 N 1.6 0.0 0.0
04:05 15.2 15.2 100 1006.0 0.7 N 1.6 0.0 0.0
04:06 15.2 15.2 100 1006.2 0.0 NW 1.6 0.0 0.0
04:08 15.2 15.2 100 1006.1 0.0 N 1.6 0.0 0.0
04:09 15.2 15.2 100 1006.0 0.0 N 1.6 0.0 0.0
04:10 15.2 15.2 100 1006.0 0.7 NE 1.6 0.0 0.0
04:11 15.2 15.2 100 1006.1 1.6 N 1.6 0.0 0.0
04:12 15.2 15.2 100 1006.0 0.7 N 1.6 0.0 0.0
04:13 15.2 15.2 100 1006.0 0.0 NW 1.6 0.0 0.0
04:14 15.2 15.2 100 1006.0 0.0 W 1.6 0.0 0.0
04:15 15.2 15.2 100 1005.8 0.7 W 1.6 0.0 0.0
04:16 15.2 15.2 100 1005.9 0.7 W 1.6 0.0 0.0
04:17 15.2 15.2 100 1005.9 0.0 W 1.6 0.0 0.0
04:18 15.2 15.2 100 1005.9 0.7 N 1.6 0.0 0.0
04:19 15.2 15.2 100 1005.9 0.7 N 1.6 0.0 0.0
04:20 15.2 15.2 100 1005.9 1.6 N 1.6 0.0 0.0
04:22 15.2 15.2 100 1005.8 1.6 N 1.6 0.0 0.0
04:23 15.2 15.2 100 1005.7 1.6 N 1.6 0.0 0.0
04:24 15.2 15.2 100 1005.8 0.7 N 1.6 0.0 0.0
04:25 15.2 15.2 100 1005.8 0.7 N 1.6 0.0 0.0
04:26 15.2 15.2 100 1005.9 0.7 NW 1.6 0.0 0.0
04:27 15.2 15.2 100 1005.7 0.7 NW 1.6 0.0 0.0
04:28 15.2 15.2 100 1005.7 0.7 W 1.6 0.0 0.0
04:29 15.2 15.2 100 1006.0 0.0 W 1.6 0.0 0.0
04:30 15.2 15.2 100 1005.9 1.6 W 1.6 0.0 0.0
04:31 15.2 15.2 100 1005.8 1.6 W 1.6 0.0 0.0
04:32 15.2 15.2 100 1006.0 1.6 NW 1.6 0.0 0.0
04:33 15.2 15.2 100 1006.0 1.6 W 1.6 0.0 0.0
04:34 15.2 15.2 100 1006.0 1.6 NW 1.6 0.0 0.0
04:36 15.2 15.2 100 1005.9 0.7 W 1.6 0.0 0.0
04:37 15.2 15.2 100 1005.8 1.6 W 1.6 0.0 0.0
04:38 15.2 15.2 100 1006.0 1.6 W 1.6 0.0 0.0
04:39 15.2 15.2 100 1005.9 1.6 W 1.6 0.0 0.0
04:40 15.2 15.2 100 1005.9 1.6 W 1.6 0.0 0.0
04:41 15.2 15.2 100 1005.8 1.6 W 1.6 0.0 0.0
04:42 15.2 15.2 100 1006.0 0.7 W 1.6 0.0 0.0
04:43 15.2 15.2 100 1006.0 1.6 W 1.6 0.0 0.0
04:44 15.2 15.2 100 1006.1 1.6 W 1.6 0.0 0.0
04:45 15.2 15.2 100 1006.0 2.2 W 2.2 0.0 0.0
04:46 15.1 15.1 100 1005.9 1.6 W 2.2 0.0 0.0
04:47 15.1 15.1 100 1006.0 1.6 W 2.2 0.0 0.0
04:48 15.1 15.1 100 1005.9 0.7 W 2.2 0.0 0.0
04:50 15.1 15.1 100 1006.0 1.6 SW 2.2 0.0 0.0
04:51 15.1 15.1 100 1006.0 1.6 NE 2.2 0.0 0.0
04:52 15.1 15.1 100 1005.9 1.6 W 2.2 0.0 0.0
04:53 15.1 15.1 100 1005.9 1.6 W 2.2 0.0 0.0
04:54 15.1 15.1 100 1005.8 0.7 W 2.2 0.0 0.0
04:55 15.1 15.1 100 1006.0 0.7 W 2.2 0.0 0.0
04:56 15.1 15.1 100 1005.9 0.7 W 1.6 0.0 0.0
04:57 15.1 15.1 100 1006.0 0.7 W 1.6 0.0 0.0
04:58 15.1 15.1 100 1006.0 0.0 W 1.6 0.0 0.0
04:59 15.1 15.1 100 1006.1 0.0 W 1.6 0.0 0.0
05:00 15.1 15.1 100 1005.8 0.0 W 1.6 0.0 0.0
05:01 15.1 15.1 100 1006.0 0.0 W 1.6 0.0 0.0
05:02 15.1 15.1 100 1006.0 0.0 W 1.6 0.0 0.0
05:04 15.1 15.1 100 1006.1 0.0 W 0.7 0.0 0.0
05:05 15.1 15.1 100 1005.8 0.0 W 0.7 0.0 0.0
05:06 15.1 15.1 100 1006.0 0.0 W 0.7 0.0 0.0
05:07 15.1 15.1 100 1006.1 0.0 W 0.7 0.0 0.0
05:08 15.0 14.9 99 1005.9 1.6 SW 1.6 0.0 0.0
05:09 15.0 14.9 99 1006.0 0.7 SW 1.6 0.0 0.0
05:10 15.0 14.9 99 1006.1 0.0 SW 1.6 0.0 0.0
05:11 15.0 14.9 99 1006.0 1.6 SW 1.6 0.0 0.0
05:12 15.0 14.9 99 1006.0 1.6 SW 1.6 0.0 0.0
05:13 15.0 14.9 99 1005.8 1.6 SW 1.6 0.0 0.0
05:14 15.0 14.9 99 1005.9 2.2 SW 2.2 0.0 0.0
05:15 15.0 14.9 99 1005.9 2.2 SW 2.2 0.0 0.0
05:16 15.0 14.9 99 1005.7 1.6 SW 2.2 0.0 0.0
05:18 15.0 14.9 99 1006.1 1.6 SW 2.2 0.0 0.0
05:19 15.0 14.9 99 1006.1 1.6 SW 2.2 0.0 0.0
05:20 14.9 14.8 99 1006.1 1.6 SW 2.2 0.0 0.0
05:21 14.9 14.8 99 1006.1 1.6 SW 2.2 0.0 0.0
05:22 14.9 14.8 99 1006.1 1.6 SW 2.2 0.0 0.0
05:23 14.9 14.8 99 1005.9 1.6 SW 2.2 0.0 0.0
05:24 14.9 14.8 99 1006.1 1.6 SW 2.2 0.0 0.0
05:25 14.9 14.8 99 1006.1 1.6 SW 2.2 0.0 0.0
05:26 14.9 14.8 99 1006.0 1.6 SW 1.6 0.0 0.0
05:27 14.9 14.8 99 1006.0 2.2 SW 2.2 0.0 0.0
05:28 14.9 14.8 99 1006.0 2.2 SW 2.2 0.0 0.0
05:29 14.9 14.9 100 1006.0 2.2 SW 2.2 0.0 0.0
05:30 14.9 14.9 100 1006.0 0.7 SW 2.2 0.0 0.0
05:32 14.9 14.9 100 1005.9 3.1 SW 3.1 0.0 0.0
05:33 14.9 14.9 100 1005.8 2.2 SW 3.1 0.0 0.0
05:34 14.9 14.9 100 1005.8 2.2 SW 3.1 0.0 0.0
05:35 14.9 14.9 100 1006.0 2.2 S 3.1 0.0 0.0
05:36 14.9 14.9 100 1006.0 3.1 W 3.1 0.0 0.0
05:37 14.9 14.9 100 1005.9 3.1 SW 3.1 0.0 0.0
05:38 14.9 14.9 100 1005.9 3.1 SW 3.1 0.0 0.0
05:39 14.9 14.9 100 1006.0 3.1 SW 3.1 0.0 0.0
05:40 14.9 14.9 100 1005.9 3.1 SW 3.1 0.0 0.0
05:41 14.9 14.9 100 1005.9 3.1 SW 3.1 0.0 0.0
05:42 14.8 14.8 100 1005.9 2.2 S 3.1 0.0 0.0
05:43 14.8 14.8 100 1005.6 3.1 SW 3.1 0.0 0.0
05:44 14.8 14.8 100 1005.7 3.1 SW 3.1 0.0 0.0
05:46 14.8 14.8 100 1005.9 2.2 SSW 3.1 0.0 0.0
05:47 14.8 14.8 100 1005.7 3.1 W 3.1 0.0 0.0
05:48 14.8 14.8 100 1005.7 3.1 SW 3.1 0.0 0.0
05:49 14.8 14.8 100 1005.7 3.1 SW 3.1 0.0 0.0
05:50 14.8 14.8 100 1005.8 3.8 SW 3.8 0.0 0.0
05:51 14.8 14.8 100 1005.7 3.8 SW 3.8 0.0 0.0
05:52 14.8 14.8 100 1005.7 3.1 W 3.8 0.0 0.0
05:53 14.8 14.8 100 1005.6 2.2 SW 3.8 0.0 0.0
05:54 14.8 14.8 100 1005.5 1.6 W 3.8 0.0 0.0
05:55 14.8 14.8 100 1005.9 2.2 SW 3.8 0.0 0.0
05:56 14.8 14.8 100 1005.8 2.2 SW 3.8 0.0 0.0
05:57 14.8 14.8 100 1005.9 2.2 SW 3.8 0.0 0.0
05:58 14.8 14.8 100 1005.5 2.2 SW 3.8 0.0 0.0
05:59 14.8 14.8 100 1005.6 1.6 SW 3.8 0.0 0.0
06:01 14.7 14.7 100 1005.6 1.6 SW 3.1 0.0 0.0
06:02 14.7 14.7 100 1005.7 2.2 SSW 2.2 0.0 0.0
06:03 14.7 14.7 100 1005.3 2.2 SW 2.2 0.0 0.0
06:04 14.7 14.7 100 1005.7 3.1 SW 3.1 0.0 0.0
06:05 14.7 14.7 100 1005.7 3.1 SW 3.1 0.0 0.0
06:06 14.7 14.7 100 1005.4 3.8 SW 3.8 0.0 0.0
06:07 14.7 14.7 100 1005.6 3.1 W 3.8 0.0 0.0
06:08 14.7 14.7 100 1005.8 3.1 SW 3.8 0.0 0.0
06:09 14.7 14.7 100 1005.7 3.1 SW 3.8 0.0 0.0
06:10 14.7 14.7 100 1005.6 2.2 SW 3.8 0.0 0.0
06:11 14.7 14.7 100 1005.5 3.8 S 3.8 0.0 0.0
06:12 14.7 14.7 100 1005.6 2.2 SW 3.8 0.0 0.0
06:14 14.7 14.7 100 1005.5 2.2 S 3.8 0.0 0.0
06:15 14.7 14.7 100 1005.5 3.1 SW 3.8 0.0 0.0
06:16 14.7 14.7 100 1005.7 2.2 S 3.8 0.0 0.0
06:17 14.7 14.7 100 1005.7 2.2 S 3.8 0.0 0.0
06:18 14.7 14.7 100 1005.4 2.2 SW 3.8 0.0 0.0
06:19 14.7 14.7 100 1005.5 2.2 SW 3.8 0.0 0.0
06:20 14.7 14.7 100 1005.5 2.2 SW 3.8 0.0 0.0
06:21 14.7 14.7 100 1005.7 2.2 SW 3.8 0.0 0.0
06:22 14.7 14.7 100 1005.4 2.2 SW 3.1 0.0 0.0
06:23 14.7 14.7 100 1005.4 2.2 WSW 3.1 0.0 0.0
06:24 14.7 14.7 100 1005.5 3.1 SSW 3.1 0.0 0.0
06:25 14.7 14.7 100 1005.6 1.6 SW 3.1 0.0 0.0
06:26 14.7 14.7 100 1005.4 2.2 SW 3.1 0.0 0.0
06:27 14.7 14.7 100 1005.3 2.2 SW 3.1 0.0 0.0
06:29 14.7 14.7 100 1005.3 2.2 S 3.1 0.0 0.0
06:30 14.7 14.7 100 1005.6 2.2 SW 3.1 0.0 0.0
06:31 14.7 14.7 100 1005.4 1.6 SW 3.1 0.0 0.0
06:32 14.7 14.7 100 1005.3 1.6 SW 3.1 0.0 0.0
06:33 14.7 14.7 100 1005.2 2.2 SW 3.1 0.0 0.0
06:34 14.7 14.7 100 1005.1 1.6 S 3.1 0.0 0.0
06:35 14.7 14.7 100 1005.2 2.2 SW 2.2 0.0 0.0
06:36 14.7 14.7 100 1005.0 2.2 SW 2.2 0.0 0.0
06:37 14.7 14.7 100 1005.3 2.2 S 2.2 0.0 0.0
06:38 14.7 14.7 100 1005.1 2.2 SW 2.2 0.0 0.0
06:39 14.7 14.7 100 1005.1 2.2 SW 2.2 0.0 0.0
06:40 14.8 14.8 100 1005.3 3.1 S 3.1 0.0 0.0
06:41 14.8 14.8 100 1005.0 3.1 WSW 3.1 0.0 0.0
06:43 14.8 14.8 100 1005.1 2.2 SW 3.1 0.0 0.0
06:44 14.8 14.8 100 1005.3 1.6 S 3.1 0.0 0.0
06:45 14.8 14.8 100 1005.1 2.2 S 3.1 0.0 0.0
06:46 14.8 14.8 100 1005.2 2.2 S 3.1 0.0 0.0
06:47 14.8 14.8 100 1005.2 2.2 S 3.1 0.0 0.0
06:48 14.8 14.8 100 1005.2 2.2 S 3.1 0.0 0.0
06:49 14.8 14.8 100 1005.2 2.2 SSW 3.1 0.0 0.0
06:50 14.8 14.8 100 1005.2 3.1 SW 3.1 0.0 0.0
06:51 14.8 14.8 100 1005.2 3.1 S 3.1 0.0 0.0
06:52 14.8 14.8 100 1005.3 3.1 S 3.1 0.0 0.0
06:53 14.8 14.8 100 1005.2 1.6 S 3.1 0.0 0.0
06:54 14.8 14.8 100 1005.2 1.6 S 3.1 0.0 0.0
06:55 14.8 14.8 100 1005.1 2.2 SE 3.1 0.0 0.0
06:57 14.8 14.8 100 1005.1 3.1 S 3.8 0.0 0.0
06:58 14.8 14.8 100 1005.1 3.1 S 3.8 0.0 0.0
06:59 14.8 14.8 100 1005.2 3.1 S 3.8 0.0 0.0
07:00 14.8 14.8 100 1005.0 3.1 WSW 3.8 0.0 0.0
07:01 14.8 14.8 100 1005.0 3.1 WSW 3.8 0.0 0.0
07:02 14.8 14.8 100 1004.9 3.1 WSW 3.8 0.0 0.0
07:03 14.8 14.8 100 1005.2 3.1 WSW 3.8 0.0 0.0
07:04 14.8 14.8 100 1005.1 3.1 WSW 3.8 0.0 0.0
07:05 14.8 14.8 100 1005.2 3.1 WSW 3.8 0.0 0.0
07:06 14.8 14.8 100 1004.8 3.8 S 3.8 0.0 0.0
07:07 14.8 14.8 100 1004.9 4.5 S 4.5 0.0 0.0
07:08 14.8 14.8 100 1005.1 3.8 S 4.5 0.0 0.0
07:09 14.8 14.8 100 1004.9 3.8 S 4.5 0.0 0.0
07:10 14.8 14.8 100 1005.2 4.5 S 4.5 0.0 0.0
07:12 14.8 14.8 100 1005.0 3.8 SW 4.5 0.0 0.0
07:13 14.8 14.8 100 1005.0 3.8 S 4.5 0.0 0.0
07:14 14.8 14.8 100 1004.9 3.8 S 4.5 0.0 0.0
07:15 14.8 14.8 100 1005.0 3.8 S 4.5 0.0 0.0
07:16 14.8 14.8 100 1005.1 5.4 S 5.4 0.0 0.0
07:17 14.8 14.8 100 1004.9 3.8 S 5.4 0.0 0.0
07:18 14.8 14.8 100 1005.1 3.8 S 5.4 0.0 0.0
07:19 14.8 14.8 100 1004.9 3.1 S 5.4 0.0 0.0
07:20 14.8 14.8 100 1005.0 5.4 S 5.4 0.0 0.0
07:21 14.8 14.8 100 1005.0 3.8 SE 5.4 0.0 0.0
07:22 14.8 14.8 100 1005.0 5.4 S 5.4 0.0 0.0
07:23 14.8 14.8 100 1005.0 5.4 S 5.4 0.0 0.0
07:24 14.8 14.8 100 1005.1 3.8 S 5.4 0.0 0.0
07:26 14.8 14.8 100 1005.0 5.4 SSE 5.4 0.0 0.0
07:27 14.8 14.8 100 1004.9 3.8 SE 5.4 0.0 0.0
07:28 14.8 14.8 100 1004.9 6.0 S 6.0 0.0 0.0
07:29 14.8 14.8 100 1004.9 6.0 S 6.0 0.0 0.0
07:30 14.8 14.8 100 1005.0 6.0 S 6.0 0.0 0.0
07:31 14.8 14.8 100 1005.1 6.0 SE 6.0 0.0 0.0
07:32 14.8 14.8 100 1004.9 5.4 S 6.0 0.0 0.0
07:33 14.8 14.8 100 1004.9 7.6 S 7.6 0.0 0.0
07:34 14.8 14.8 100 1004.9 6.9 S 7.6 0.0 0.0
07:35 14.8 14.8 100 1005.0 6.0 SE 7.6 0.0 0.0
07:36 14.8 14.8 100 1004.8 7.6 S 7.6 0.0 0.0
07:37 14.8 14.8 100 1004.9 5.4 S 7.6 0.0 0.0
07:38 14.8 14.8 100 1004.9 7.6 SE 7.6 0.0 0.0
07:39 14.8 14.8 100 1004.9 6.9 S 7.6 0.0 0.0
07:41 14.8 14.8 100 1004.9 6.0 SW 7.6 0.0 0.0
07:42 14.8 14.8 100 1004.8 6.9 S 7.6 0.0 0.0
07:43 14.8 14.8 100 1004.9 7.6 S 7.6 0.0 0.0
07:44 14.8 14.8 100 1005.0 7.6 SE 7.6 0.0 0.0
07:45 14.8 14.8 100 1004.9 7.6 S 7.6 0.0 0.0
07:46 14.8 14.8 100 1004.9 9.2 S 9.2 0.0 0.0
07:47 14.8 14.8 100 1004.9 7.6 S 9.2 0.0 0.0
07:48 14.8 14.8 100 1004.7 7.6 W 9.2 0.0 0.0
07:49 14.8 14.8 100 1004.7 7.6 SW 9.2 0.0 0.0
07:50 14.8 14.8 100 1004.9 8.3 S 9.2 0.0 0.0
07:51 14.8 14.8 100 1005.0 9.2 S 9.2 0.0 0.0
07:52 14.8 14.8 100 1005.0 9.2 S 10.7 0.0 0.0
07:54 14.8 14.8 100 1004.8 6.9 S 10.7 0.0 0.0
07:55 14.8 14.8 100 1004.8 8.3 SW 10.7 0.0 0.0
07:56 14.9 14.9 100 1004.8 10.7 S 10.7 0.0 0.0
07:57 14.9 14.9 100 1004.8 10.7 S 10.7 0.0 0.0
07:58 14.9 14.9 100 1005.0 8.3 S 10.7 0.0 0.0
07:59 14.9 14.9 100 1004.8 9.8 S 10.7 0.0 0.0
08:00 14.9 14.9 100 1005.1 9.2 S 10.7 0.0 0.0
08:01 15.0 15.0 100 1004.7 6.9 S 10.7 0.0 0.0
08:02 15.0 15.0 100 1004.7 7.6 S 10.7 0.0 0.0
08:03 15.0 15.0 100 1005.0 6.0 S 10.7 0.0 0.0
08:04 15.1 15.1 100 1004.9 6.9 S 10.7 0.0 0.0
08:05 15.1 15.1 100 1005.0 7.6 SW 10.7 0.0 0.0
08:06 15.1 15.1 100 1004.8 7.6 SW 10.7 0.0 0.0
08:09 15.2 15.2 100 1004.7 9.2 S 9.8 0.0 0.0
08:10 15.2 15.2 100 1004.8 9.2 NE 9.8 0.0 0.0
08:11 15.2 15.2 100 1005.0 8.3 S 9.8 0.0 0.0
08:12 15.2 15.2 100 1004.8 11.4 SW 11.4 0.0 0.0
08:13 15.2 15.2 100 1004.7 9.8 SW 11.4 0.0 0.0
08:14 15.2 15.2 100 1004.9 9.8 S 11.4 0.0 0.0
08:15 15.2 15.2 100 1004.9 9.8 S 11.4 0.0 0.0
08:16 15.2 15.2 100 1004.7 9.8 SW 11.4 0.0 0.0
08:17 15.2 15.2 100 1004.7 9.2 SW 11.4 0.0 0.0
08:18 15.2 15.2 100 1004.9 12.1 SW 12.1 0.0 0.0
08:19 15.2 15.2 100 1004.7 12.1 S 12.1 0.0 0.0
08:20 15.3 15.3 100 1004.6 9.2 SW 12.1 0.0 0.0
08:21 15.3 15.3 100 1004.8 11.4 SW 12.1 0.0 0.0
08:23 15.3 15.3 100 1004.8 10.7 SW 12.1 0.0 0.0
08:24 15.4 15.4 100 1004.7 10.7 S 12.1 0.0 0.0
08:25 15.4 15.4 100 1004.5 8.3 NW 12.1 0.0 0.0
08:26 15.5 15.5 100 1004.8 9.8 SW 12.1 0.0 0.0
08:27 15.5 15.5 100 1004.6 11.4 S 12.1 0.0 0.0
08:28 15.5 15.5 100 1004.5 11.4 S 12.1 0.0 0.0
08:29 15.5 15.5 100 1004.8 11.4 SW 12.1 0.0 0.0
08:30 15.5 15.4 99 1004.9 7.6 S 11.4 0.0 0.0
08:31 15.5 15.4 99 1004.9 13.6 S 13.6 0.0 0.0
08:32 15.5 15.4 99 1004.9 6.9 SW 13.6 0.0 0.0
08:33 15.6 15.5 99 1005.1 13.6 SW 13.6 0.0 0.0
08:34 15.6 15.5 99 1004.9 13.6 SW 13.6 0.0 0.0
08:35 15.6 15.5 99 1004.9 11.4 SW 13.6 0.0 0.0
08:36 15.5 15.2 98 1004.7 11.4 SW 13.6 0.0 0.0
08:38 15.5 15.0 97 1004.8 6.9 SSW 13.6 0.0 0.0
08:39 15.5 15.0 97 1004.7 11.4 SW 13.6 0.0 0.0
08:40 15.5 15.0 97 1004.9 11.4 SW 13.6 0.0 0.0
08:41 15.5 15.0 97 1004.9 14.5 S 14.5 0.0 0.0
08:42 15.5 14.9 96 1004.8 11.4 SW 14.5 0.0 0.0
08:43 15.5 14.9 96 1004.7 9.8 SW 14.5 0.0 0.0
08:44 15.5 14.9 96 1004.8 9.8 SW 14.5 0.0 0.0
08:45 15.5 14.9 96 1004.8 10.7 S 14.5 0.0 0.0
08:46 15.6 14.8 95 1004.7 11.4 SW 14.5 0.0 0.0
08:47 15.6 14.8 95 1004.7 12.1 S 14.5 0.0 0.0
08:48 15.7 14.9 95 1004.9 9.2 S 14.5 0.0 0.0
08:49 15.7 14.9 95 1004.7 9.2 SW 14.5 0.0 0.0
08:50 15.7 14.9 95 1004.6 13.0 SSE 14.5 0.0 0.0
08:52 15.7 14.7 94 1004.5 14.5 S 15.9 0.0 0.0
08:53 15.7 14.7 94 1004.6 13.0 S 15.9 0.0 0.0
08:54 15.7 14.7 94 1004.5 13.6 S 15.9 0.0 0.0
08:55 15.7 14.7 94 1004.8 18.3 S 18.3 0.0 0.0
08:56 15.7 14.7 94 1004.7 18.3 S 18.3 0.0 0.0
08:57 15.7 14.6 93 1004.8 10.7 S 18.3 0.0 0.0
08:58 15.7 14.6 93 1004.4 11.4 SW 18.3 0.0 0.0
08:59 15.7 14.6 93 1004.4 13.0 S 18.3 0.0 0.0
09:00 15.7 14.6 93 1004.5 11.4 SW 18.3 0.0 0.0
09:01 15.7 14.6 93 1004.6 11.4 SW 18.3 0.0 0.0
09:02 15.7 14.6 93 1004.4 11.4 SW 18.3 0.0 0.0
09:03 15.7 14.6 93 1004.5 11.4 SW 18.3 0.0 0.0
09:04 15.7 14.6 93 1004.6 11.4 SW 18.3 0.0 0.0
09:06 16.0 14.7 92 1004.6 18.3 S 18.3 0.0 0.0
09:07 16.1 14.8 92 1004.7 15.2 SSW 18.3 0.0 0.0
09:08 16.1 14.6 91 1004.6 15.2 W 18.3 0.0 0.0
09:09 16.1 14.6 91 1004.6 15.2 W 18.3 0.0 0.0
09:10 16.1 14.6 91 1004.4 12.1 S 18.3 0.0 0.0
09:11 16.1 14.5 90 1004.5 15.2 SW 18.3 0.0 0.0
09:12 16.0 14.4 90 1004.5 15.2 SE 18.3 0.0 0.0
09:13 16.0 14.4 90 1004.5 16.8 S 18.3 0.0 0.0
09:14 16.0 14.2 89 1004.5 10.7 W 18.3 0.0 0.0
09:15 16.0 14.2 89 1004.4 11.4 SW 18.3 0.0 0.0
09:16 16.0 14.2 89 1004.4 13.6 WSW 18.3 0.0 0.0
09:17 16.1 14.3 89 1004.2 12.1 SW 16.8 0.0 0.0
09:18 16.1 14.3 89 1004.5 13.0 S 16.8 0.0 0.0
09:19 16.1 14.3 89 1004.4 13.0 S 16.8 0.0 0.0
09:20 16.2 14.4 89 1004.3 15.9 S 16.8 0.0 0.0
09:21 16.2 14.4 89 1004.3 11.4 S 16.8 0.0 0.0
09:23 16.2 14.2 88 1004.3 15.9 SW 16.8 0.0 0.0
09:24 16.2 14.2 88 1004.1 12.1 S 15.9 0.0 0.0
09:25 16.2 14.2 88 1004.2 12.1 S 15.9 0.0 0.0
09:26 16.2 14.0 87 1004.2 13.6 SW 15.9 0.0 0.0
09:27 16.2 14.0 87 1004.2 13.6 SW 15.9 0.0 0.0
09:28 16.3 14.1 87 1004.0 12.1 SW 15.9 0.0 0.0
09:29 16.3 14.1 87 1004.3 12.1 SSW 15.9 0.0 0.0
09:30 16.4 14.2 87 1004.4 15.9 S 15.9 0.0 0.0
09:31 16.4 14.2 87 1003.9 11.4 S 15.9 0.0 0.0
09:32 16.4 14.2 87 1004.3 13.6 S 15.9 0.0 0.0
09:33 16.5 14.3 87 1004.2 14.5 S 15.9 0.0 0.0
09:34 16.5 14.2 86 1004.3 13.6 SSW 15.9 0.0 0.0
09:35 16.5 14.2 86 1004.3 12.1 S 15.9 0.0 0.0
09:37 16.6 14.3 86 1004.2 13.0 SW 15.9 0.0 0.0
09:38 16.6 14.3 86 1004.0 13.0 S 15.9 0.0 0.0
09:39 16.6 14.3 86 1004.1 13.0 S 15.9 0.0 0.0
09:40 16.8 14.5 86 1004.1 12.1 SW 15.9 0.0 0.0
09:41 16.9 14.6 86 1004.2 12.1 S 14.5 0.0 0.0
09:42 17.1 14.7 86 1004.1 15.2 S 15.2 0.0 0.0
09:43 17.1 14.6 85 1004.1 12.1 SW 15.2 0.0 0.0
09:44 17.1 14.6 85 1003.8 12.1 S 15.2 0.0 0.0
09:45 17.1 14.6 85 1004.2 16.8 S 16.8 0.0 0.0
09:46 17.1 14.4 84 1003.9 14.5 S 16.8 0.0 0.0
09:47 17.0 14.1 83 1004.2 14.5 S 16.8 0.0 0.0
09:48 17.0 14.1 83 1004.2 11.4 SSW 16.8 0.0 0.0
09:49 17.0 14.1 83 1003.8 13.6 S 16.8 0.0 0.0
09:51 17.0 13.9 82 1004.0 13.6 S 16.8 0.0 0.0
09:52 17.0 13.9 82 1004.0 12.1 S 16.8 0.0 0.0
09:53 17.0 14.1 83 1003.9 14.5 S 16.8 0.0 0.0
09:54 17.1 14.2 83 1004.0 14.5 SW 16.8 0.0 0.0
09:55 17.1 14.0 82 1004.0 13.0 S 14.5 0.0 0.0
09:56 17.1 14.0 82 1003.9 13.6 S 14.5 0.0 0.0
09:57 17.1 14.0 82 1003.9 14.5 S 14.5 0.0 0.0
09:58 17.0 13.9 82 1004.0 15.9 SW 15.9 0.0 0.0
09:59 17.0 13.9 82 1004.0 13.6 S 15.9 0.0 0.0
10:00 17.0 13.7 81 1003.9 15.2 S 15.9 0.0 0.0
10:01 17.0 13.7 81 1004.1 15.2 S 15.9 0.0 0.0
10:02 16.9 13.6 81 1003.8 19.0 S 19.0 0.0 0.0
10:03 16.9 13.6 81 1003.8 15.9 SW 19.0 0.0 0.0
10:04 16.8 13.5 81 1004.1 16.8 SW 19.0 0.0 0.0
10:06 16.8 13.5 81 1004.2 17.4 S 19.0 0.0 0.0
10:07 16.7 13.4 81 1003.8 15.9 SSW 19.0 0.0 0.0
10:08 16.6 13.3 81 1004.0 15.2 SW 19.0 0.0 0.0
10:09 16.6 13.3 81 1004.0 15.2 SW 19.0 0.0 0.0
10:10 16.6 13.5 82 1003.9 17.4 S 19.0 0.0 0.0
10:11 16.5 13.4 82 1003.8 17.4 S 19.0 0.0 0.0
10:12 16.5 13.4 82 1003.9 15.9 S 19.0 0.0 0.0
10:13 16.4 13.5 83 1003.9 15.2 S 17.4 0.0 0.0
10:14 16.3 13.4 83 1004.0 15.2 S 17.4 0.0 0.0
10:15 16.3 13.4 83 1004.1 16.8 S 17.4 0.0 0.0
10:16 16.2 13.3 83 1003.9 16.8 S 17.4 0.0 0.0
10:17 16.1 13.2 83 1003.7 15.9 SE 17.4 0.0 0.0
10:18 16.1 13.2 83 1003.8 14.5 S 17.4 0.0 0.0
10:20 15.9 13.2 84 1003.9 12.1 S 17.4 0.0 0.0
10:21 15.9 13.2 84 1003.8 15.2 SW 16.8 0.0 0.0
10:22 15.9 13.2 84 1003.5 15.2 S 16.8 0.0 0.0
10:23 15.9 13.2 84 1003.7 15.2 S 16.8 0.0 0.0
10:24 15.9 13.4 85 1003.8 13.0 S 16.8 0.0 0.0
10:25 15.9 13.4 85 1003.6 13.6 SW 16.8 0.0 0.0
10:26 16.0 13.7 86 1003.7 13.0 S 16.8 0.0 0.0
10:27 16.0 13.7 86 1003.6 13.6 S 15.9 0.0 0.0
10:28 16.0 13.7 86 1003.8 13.0 S 15.9 0.0 0.0
10:29 16.0 13.7 86 1003.8 15.2 S 15.9 0.0 0.0
10:30 15.9 13.6 86 1003.7 16.8 S 16.8 0.0 0.0
10:31 15.9 13.6 86 1003.6 16.8 SW 16.8 0.0 0.0
10:32 15.9 13.6 86 1003.7 15.2 S 16.8 0.0 0.0
10:34 15.8 13.5 86 1003.6 17.4 SSE 17.4 0.0 0.0
10:35 15.7 13.4 86 1003.7 15.9 SW 17.4 0.0 0.0
10:36 15.6 13.3 86 1003.8 17.4 SW 17.4 0.0 0.0
10:37 15.6 13.3 86 1003.8 17.4 SW 17.4 0.0 0.0
10:38 15.5 13.2 86 1003.6 14.5 SSE 17.4 0.0 0.0
10:39 15.4 13.1 86 1003.5 16.8 SW 17.4 0.0 0.0
10:40 15.4 13.1 86 1003.5 16.8 SW 17.4 0.0 0.0
10:41 15.3 13.0 86 1003.6 17.4 S 17.4 0.0 0.0
10:42 15.3 13.0 86 1003.6 12.1 S 17.4 0.0 0.0
10:43 15.2 12.9 86 1003.6 12.1 S 17.4 0.0 0.0
10:44 15.2 13.1 87 1003.5 13.6 W 17.4 0.0 0.0
10:45 15.2 13.1 87 1003.6 14.5 S 17.4 0.0 0.0
10:46 15.2 13.1 87 1003.5 13.0 SE 17.4 0.0 0.0
10:48 15.2 13.2 88 1003.5 13.6 S 17.4 0.0 0.0
10:49 15.2 13.2 88 1003.4 13.6 S 17.4 0.0 0.0
10:50 15.2 13.2 88 1003.5 13.6 SE 17.4 0.0 0.0
10:51 15.2 13.4 89 1003.5 13.0 S 17.4 0.0 0.0
10:52 15.2 13.4 89 1003.6 12.1 S 15.2 0.0 0.0
10:53 15.2 13.4 89 1003.5 12.1 S 15.2 0.0 0.0
10:54 15.2 13.4 89 1003.6 12.1 S 15.2 0.0 0.0
10:55 15.2 13.4 89 1003.5 17.4 S 17.4 0.0 0.0
10:56 15.2 13.4 89 1003.7 17.4 SE 17.4 0.0 0.0
10:57 15.2 13.4 89 1003.5 12.1 S 17.4 0.0 0.0
10:58 15.3 13.5 89 1003.4 15.2 S 17.4 0.0 0.0
10:59 15.4 13.8 90 1003.4 15.2 S 17.4 0.0 0.0
11:00 15.4 13.8 90 1003.4 13.6 S 17.4 0.0 0.0
11:01 15.4 13.8 90 1003.5 13.6 S 17.4 0.0 0.0
11:03 15.5 13.9 90 1003.4 12.1 SE 17.4 0.0 0.0
11:04 15.6 14.0 90 1003.6 15.9 SE 17.4 0.0 0.0
11:05 15.6 14.0 90 1003.5 13.0 S 17.4 0.0 0.0
11:06 15.6 14.0 90 1003.4 17.4 SSE 17.4 0.0 0.0
11:07 15.6 14.0 90 1003.5 10.7 S 17.4 0.0 0.0
11:08 15.6 14.0 90 1003.6 13.6 W 17.4 0.0 0.0
11:09 15.7 14.1 90 1003.4 12.1 W 17.4 0.0 0.0
11:10 15.7 14.1 90 1003.5 17.4 S 17.4 0.0 0.0
11:11 15.7 14.1 90 1003.6 14.5 S 17.4 0.0 0.0
11:12 15.7 14.1 90 1003.5 18.3 S 18.3 0.0 0.0
11:13 15.8 14.2 90 1003.4 18.3 S 18.3 0.0 0.0
11:14 15.8 14.2 90 1003.6 20.6 S 20.6 0.0 0.0
11:15 15.8 14.2 90 1003.5 20.6 S 20.6 0.0 0.0
11:16 15.8 14.2 90 1003.5 20.6 S 20.6 0.0 0.0
11:17 15.8 14.0 89 1003.4 15.2 SW 20.6 0.0 0.0
11:18 15.8 14.0 89 1003.3 15.2 S 20.6 0.0 0.0
11:19 15.8 14.0 89 1003.5 13.0 SE 20.6 0.0 0.0
11:21 15.8 14.0 89 1003.2 14.5 S 20.6 0.0 0.0
11:22 15.8 14.0 89 1003.4 15.2 S 20.6 0.0 0.0
11:23 15.8 14.0 89 1003.4 17.4 S 20.6 0.0 0.0
11:24 15.8 14.0 89 1003.1 17.4 S 20.6 0.0 0.0
11:25 15.7 13.9 89 1003.2 17.4 S 20.6 0.0 0.0
11:26 15.8 14.0 89 1003.3 18.3 SW 20.6 0.0 0.0
11:27 15.8 14.0 89 1003.1 15.9 SW 18.3 0.0 0.0
11:28 15.8 14.0 89 1003.4 13.6 S 18.3 0.0 0.0
11:29 15.7 13.9 89 1003.4 19.7 SW 19.7 0.0 0.0
11:30 15.7 13.9 89 1003.3 15.9 SW 19.7 0.0 0.0
11:31 15.7 13.9 89 1003.6 14.5 S 19.7 0.0 0.0
11:32 15.7 13.9 89 1003.1 17.4 SW 19.7 0.0 0.0
11:33 15.7 13.9 89 1003.3 15.2 S 19.7 0.0 0.0
11:35 15.7 13.9 89 1003.3 14.5 SSW 19.7 0.0 0.0
11:36 15.8 14.2 90 1003.5 12.1 SW 19.7 0.0 0.0
11:37 15.8 14.2 90 1003.1 14.5 S 19.7 0.0 0.0
11:38 15.8 14.2 90 1003.4 14.5 S 19.7 0.0 0.0
11:39 15.8 14.2 90 1003.4 19.7 S 19.7 0.0 0.0
11:40 15.8 14.2 90 1003.2 15.2 S 19.7 0.0 0.0
11:41 15.7 14.1 90 1003.4 14.5 SW 19.7 0.0 0.0
11:42 15.7 14.1 90 1003.5 9.8 S 19.7 0.0 0.0
11:43 15.7 14.1 90 1003.4 15.2 SE 19.7 0.0 0.0
11:44 15.7 14.1 90 1003.4 15.2 SW 19.7 0.0 0.0
11:45 15.7 14.1 90 1003.2 11.4 SW 19.7 0.0 0.0
11:46 15.6 14.0 90 1003.3 15.2 SSW 19.7 0.0 0.0
11:47 15.6 14.0 90 1003.5 20.6 S 20.6 0.0 0.0
11:48 15.5 13.9 90 1003.2 16.8 SW 20.6 0.0 0.0
11:49 15.5 13.9 90 1003.4 16.8 SW 20.6 0.0 0.0
11:51 15.5 13.9 90 1003.4 16.8 SSE 20.6 0.0 0.0
11:52 15.4 13.8 90 1003.2 15.2 S 20.6 0.0 0.0
11:53 15.4 13.8 90 1003.3 15.2 SE 20.6 0.0 0.0
11:54 15.4 13.8 90 1003.2 19.0 S 20.6 0.0 0.0
11:55 15.4 13.8 90 1003.1 13.0 S 20.6 0.0 0.0
11:56 15.4 13.8 90 1003.5 10.7 S 20.6 0.0 0.0
11:57 15.3 13.8 91 1003.2 13.0 S 20.6 0.0 0.0
11:58 15.3 13.8 91 1003.2 18.3 S 20.6 0.0 0.0
11:59 15.3 13.8 91 1003.3 14.5 S 19.0 0.0 0.0
12:00 15.3 13.8 91 1003.3 18.3 S 19.0 0.0 0.0
12:01 15.3 13.8 91 1003.3 18.3 S 19.0 0.0 0.0
12:02 15.2 13.7 91 1003.1 20.6 S 20.6 0.0 0.0
12:03 15.2 13.7 91 1003.3 22.1 S 22.1 0.0 0.0
12:05 15.2 13.9 92 1003.1 19.0 S 22.1 0.0 0.0
12:06 15.2 13.9 92 1003.1 13.6 S 22.1 0.0 0.0
12:07 15.2 13.9 92 1003.2 20.6 S 22.1 0.0 0.0
12:08 15.2 13.9 92 1003.0 15.9 SW 22.1 0.0 0.0
12:09 15.2 13.9 92 1003.1 18.3 S 22.1 0.0 0.0
12:10 15.1 14.0 93 1003.0 13.6 S 22.1 0.0 0.0
12:11 15.1 14.0 93 1002.8 15.2 S 22.1 0.0 0.0
12:12 15.1 14.0 93 1003.2 14.5 SW 22.1 0.0 0.0
12:13 15.1 14.0 93 1002.9 15.2 S 22.1 0.0 0.0
12:14 15.1 14.1 94 1003.1 16.8 S 20.6 0.0 0.0
12:15 15.1 14.1 94 1003.0 15.2 S 20.6 0.0 0.0
12:16 15.1 14.1 94 1003.0 14.5 SE 20.6 0.0 0.0
12:17 15.1 14.1 94 1002.7 13.0 SW 18.3 0.0 0.0
12:19 15.1 14.1 94 1002.8 12.1 S 16.8 0.0 0.0
12:20 15.1 14.3 95 1003.0 15.9 SW 16.8 0.0 0.0
12:21 15.2 14.4 95 1002.9 14.5 S 16.8 0.0 0.0
12:22 15.2 14.4 95 1003.0 13.0 SW 16.8 0.0 0.0
12:23 15.2 14.4 95 1002.8 14.5 SW 16.8 0.0 0.0
12:24 15.2 14.4 95 1002.7 14.5 SW 16.8 0.0 0.0
12:25 15.2 14.4 95 1002.7 21.3 S 21.3 0.0 0.0
12:26 15.1 14.3 95 1003.0 19.0 S 21.3 0.0 0.0
12:27 15.1 14.3 95 1002.8 16.8 SW 21.3 0.0 0.0
12:28 15.1 14.3 95 1002.8 17.4 S 21.3 0.0 0.0
12:29 15.1 14.1 94 1002.7 15.9 S 21.3 0.0 0.0
12:30 15.1 14.1 94 1002.8 15.9 S 21.3 0.0 0.0
12:31 15.1 14.1 94 1003.1 19.0 SW 21.3 0.0 0.0
12:32 15.1 14.1 94 1002.9 16.8 SW 21.3 0.0 0.0
12:34 15.1 14.1 94 1002.8 13.6 S 21.3 0.0 0.0
12:35 15.1 14.1 94 1002.8 19.0 S 19.7 0.0 0.0
12:36 15.2 14.2 94 1002.9 14.5 WSW 19.0 0.0 0.0
12:37 15.2 14.2 94 1002.9 14.5 SW 19.0 0.0 0.0
12:38 15.2 14.2 94 1003.0 15.9 S 19.0 0.0 0.0
12:39 15.2 14.2 94 1002.9 15.9 S 19.0 0.0 0.0
12:40 15.3 14.3 94 1002.9 15.9 NW 19.0 0.0 0.0
12:41 15.3 14.3 94 1002.7 15.9 S 19.0 0.0 0.0
12:42 15.3 14.3 94 1002.7 15.2 S 19.0 0.0 0.0
12:43 15.3 14.3 94 1002.8 16.8 S 19.0 0.0 0.0
12:44 15.3 14.3 94 1003.0 19.0 S 19.0 0.0 0.0
12:45 15.3 14.3 94 1002.6 19.0 S 19.0 0.0 0.0
12:46 15.3 14.3 94 1002.8 15.2 S 19.0 0.0 0.0
12:47 15.3 14.3 94 1002.7 15.2 SW 19.0 0.0 0.0
12:48 15.3 14.3 94 1002.8 22.8 SE 22.8 0.0 0.0
12:49 15.2 14.2 94 1002.8 15.9 SW 22.8 0.0 0.0
12:51 15.1 14.1 94 1002.7 17.4 S 22.8 0.0 0.0
12:52 15.1 14.1 94 1002.5 20.6 S 22.8 0.0 0.0
12:53 15.1 14.1 94 1002.7 20.6 S 22.8 0.0 0.0
12:54 15.1 14.1 94 1002.7 17.4 SSW 22.8 0.0 0.0
12:55 15.1 14.1 94 1002.7 17.4 SSE 22.8 0.0 0.0
12:56 15.1 14.1 94 1002.7 15.9 SE 22.8 0.0 0.0
12:57 15.1 14.3 95 1002.7 22.1 S 22.8 0.0 0.0
12:58 15.0 14.2 95 1002.6 14.5 S 22.8 0.0 0.1
12:59 15.0 14.2 95 1002.6 15.9 SW 22.1 0.8 0.1
13:00 15.0 14.2 95 1002.3 16.8 S 22.1 0.8 0.1
13:01 15.0 14.2 95 1002.6 16.8 S 22.1 0.8 0.1
13:02 15.0 14.2 95 1002.5 16.8 S 22.1 0.8 0.1
13:03 15.0 14.2 95 1002.6 16.8 S 22.1 0.8 0.1
13:04 15.0 14.2 95 1002.5 16.8 S 22.1 0.0 0.1
13:05 15.0 14.4 96 1002.5 22.1 S 22.1 0.0 0.2
13:07 14.9 14.4 97 1002.6 19.0 S 22.1 1.5 0.2
13:08 14.9 14.4 97 1002.4 16.8 S 22.1 2.3 0.3
13:09 14.9 14.4 97 1002.4 17.4 S 22.1 2.3 0.3
13:10 14.9 14.4 97 1002.6 20.6 SE 22.1 2.3 0.3
13:11 14.9 14.4 97 1002.4 20.6 S 22.1 0.8 0.3
13:12 14.9 14.6 98 1002.3 20.6 SE 22.1 0.8 0.3
13:13 14.8 14.5 98 1002.6 22.8 S 22.8 0.0 0.3
13:14 14.8 14.5 98 1002.5 21.3 SW 22.8 0.0 0.3
13:15 14.8 14.5 98 1002.4 18.3 S 22.8 0.0 0.3
13:16 14.8 14.5 98 1002.4 16.8 S 22.8 0.0 0.3
13:17 14.9 14.8 99 1002.5 17.4 SE 22.8 0.8 0.3
13:18 14.9 14.8 99 1002.4 19.0 S 22.8 0.8 0.3
13:19 14.9 14.8 99 1002.4 15.9 S 22.8 0.8 0.3
13:20 14.9 14.8 99 1002.5 15.9 S 22.8 0.8 0.3
13:21 14.9 14.8 99 1002.5 18.3 S 22.8 0.8 0.3
13:22 14.8 14.7 99 1002.4 23.5 S 23.5 0.0 0.3
13:23 14.8 14.7 99 1002.4 19.7 S 23.5 0.0 0.3
13:24 14.8 14.7 99 1002.1 15.9 WSW 23.5 0.0 0.3
13:25 14.8 14.8 100 1002.3 15.2 S 23.5 0.0 0.3
13:26 14.8 14.8 100 1002.2 19.7 S 23.5 0.0 0.3
13:28 14.8 14.8 100 1002.3 18.3 SW 23.5 0.8 0.4
13:29 14.8 14.8 100 1002.3 16.8 SE 23.5 0.8 0.4
13:30 14.8 14.8 100 1002.2 19.0 SSE 23.5 0.8 0.4
13:31 14.8 14.8 100 1002.3 12.1 WSW 23.5 0.8 0.4
13:32 14.8 14.8 100 1002.4 15.9 S 23.5 0.8 0.4
13:33 14.8 14.8 100 1002.3 15.9 S 20.6 0.0 0.4
13:34 14.8 14.8 100 1002.1 16.8 S 20.6 0.0 0.4
13:35 14.8 14.8 100 1002.1 21.3 S 21.3 0.0 0.4
13:36 14.8 14.8 100 1002.3 21.3 S 21.3 0.0 0.4
13:37 14.7 14.7 100 1002.0 15.9 S 21.3 0.0 0.4
13:38 14.7 14.7 100 1002.1 17.4 S 21.3 0.0 0.4
13:39 14.7 14.7 100 1002.1 15.9 S 21.3 0.0 0.4
13:40 14.8 14.8 100 1002.0 19.0 S 21.3 0.0 0.4
13:41 14.7 14.7 100 1002.1 15.9 SW 21.3 0.0 0.4
13:42 14.7 14.7 100 1001.9 17.4 SE 21.3 0.0 0.4
13:43 14.7 14.7 100 1002.0 16.8 S 21.3 0.0 0.4
13:45 14.7 14.7 100 1002.0 20.6 S 21.3 0.0 0.4
13:46 14.7 14.7 100 1002.0 18.3 SE 20.6 0.0 0.4
13:47 14.8 14.8 100 1002.2 20.6 S 20.6 0.0 0.4
13:48 14.8 14.8 100 1002.0 23.5 SW 23.5 0.0 0.4
13:49 14.8 14.8 100 1001.9 19.0 S 23.5 0.0 0.4
13:50 14.8 14.8 100 1002.1 15.9 S 23.5 0.0 0.4
13:51 14.8 14.8 100 1001.9 12.1 S 23.5 0.0 0.4
13:52 14.8 14.8 100 1001.9 15.2 SSE 23.5 0.0 0.4
13:53 14.8 14.8 100 1001.9 14.5 SE 23.5 0.0 0.4
13:54 14.8 14.8 100 1002.0 17.4 S 23.5 0.0 0.4
13:55 14.8 14.8 100 1001.8 19.7 SE 23.5 0.0 0.4
13:56 14.8 14.8 100 1001.9 25.9 SW 25.9 0.0 0.4
13:57 14.7 14.7 100 1002.1 18.3 SE 25.9 0.0 0.4
13:58 14.7 14.7 100 1001.8 18.3 S 25.9 0.0 0.4
13:59 14.7 14.7 100 1001.8 17.4 S 25.9 0.0 0.4
14:01 14.7 14.7 100 1001.9 17.4 S 25.9 0.0 0.4
14:02 14.7 14.7 100 1001.9 17.4 S 25.9 0.0 0.4
14:03 14.7 14.7 100 1001.9 13.0 S 25.9 0.0 0.4
14:04 14.8 14.8 100 1002.0 17.4 SW 25.9 0.0 0.4
14:05 14.8 14.8 100 1002.0 17.4 SW 25.9 0.0 0.4
14:06 14.8 14.8 100 1001.9 18.3 S 25.9 0.0 0.4
14:07 14.8 14.8 100 1001.9 17.4 S 18.3 0.0 0.4
14:08 14.8 14.8 100 1001.5 17.4 SSE 18.3 0.0 0.4
14:09 14.8 14.8 100 1001.8 14.5 S 18.3 0.0 0.4
14:10 14.8 14.8 100 1001.8 16.8 S 18.3 0.8 0.4
14:11 14.8 14.8 100 1001.7 15.2 SW 18.3 0.8 0.4
14:12 14.8 14.8 100 1001.6 13.0 S 18.3 0.8 0.4
14:13 14.8 14.8 100 1001.7 16.8 SW 18.3 0.8 0.4
14:14 14.8 14.8 100 1001.6 19.0 SE 19.0 0.8 0.5
14:15 14.8 14.8 100 1001.5 19.0 S 19.0 0.8 0.5
14:16 14.8 14.8 100 1001.5 16.8 S 19.0 0.8 0.5
14:18 14.7 14.7 100 1001.7 19.0 S 19.0 1.5 0.6
14:19 14.8 14.8 100 1001.6 17.4 S 19.0 2.3 0.8
14:20 14.8 14.8 100 1001.6 15.2 S 19.0 3.0 0.9
14:21 14.8 14.8 100 1001.6 15.2 S 19.0 4.5 0.9
14:22 14.8 14.8 100 1001.6 15.2 S 19.0 6.0 1.0
14:23 14.8 14.8 100 1001.5 15.2 S 19.0 5.3 1.1
14:24 14.8 14.8 100 1001.5 17.4 S 19.0 6.0 1.1
14:25 14.8 14.8 100 1001.5 17.4 S 19.0 6.0 1.3
14:26 14.8 14.8 100 1001.5 20.6 S 20.6 4.5 1.4
14:27 14.8 14.8 100 1001.6 20.6 NE 20.6 4.5 1.4
14:28 14.9 14.9 100 1001.6 16.8 S 20.6 6.0 1.5
14:29 14.9 14.9 100 1001.3 19.7 S 20.6 6.0 1.6
14:30 14.9 14.9 100 1001.4 15.9 SE 20.6 4.5 1.8
14:31 14.9 14.9 100 1001.5 11.4 S 20.6 6.0 1.8
14:32 14.9 14.9 100 1001.4 16.8 SE 20.6 6.8 2.1
14:34 14.9 14.9 100 1001.4 20.6 SW 22.8 6.0 2.3
14:35 14.9 14.9 100 1001.2 15.2 S 22.8 7.6 2.4
14:36 14.9 14.9 100 1001.4 19.0 SE 22.8 8.3 2.5
14:37 14.9 14.9 100 1001.5 17.4 S 22.8 6.8 2.6
14:38 14.9 14.9 100 1001.5 17.4 S 22.8 6.0 2.6
14:39 14.9 14.9 100 1001.3 19.0 SE 22.8 6.0 2.7
14:40 14.9 14.9 100 1001.6 14.5 S 22.8 6.0 2.8
14:41 14.9 14.9 100 1001.4 14.5 S 22.8 3.8 2.8
14:42 14.9 14.9 100 1001.3 14.5 SSE 22.8 4.5 2.9
14:43 14.9 14.9 100 1001.3 16.8 S 22.8 3.8 3.0
14:44 14.9 14.9 100 1001.2 14.5 SW 20.6 4.5 3.0
14:45 14.9 14.9 100 1001.5 14.5 S 19.0 3.0 3.0
14:46 14.9 14.9 100 1001.1 13.6 S 19.0 3.0 3.1
14:47 14.9 14.9 100 1001.3 13.6 S 19.0 2.3 3.1
14:48 14.9 14.9 100 1001.3 14.5 S 19.0 2.3 3.1
14:49 14.9 14.9 100 1001.4 14.5 S 17.4 1.5 3.1
14:50 14.9 14.9 100 1001.1 13.0 S 17.4 1.5 3.1
14:52 14.9 14.9 100 1001.1 16.8 S 20.6 1.5 3.2
14:53 14.9 14.9 100 1001.1 17.4 S 20.6 1.5 3.2
14:54 14.9 14.9 100 1001.2 17.4 S 20.6 0.8 3.2
14:55 14.9 14.9 100 1001.2 18.3 S 20.6 0.8 3.2
14:56 14.9 14.9 100 1001.1 15.9 S 20.6 0.8 3.2
14:57 14.9 14.9 100 1001.1 18.3 ESE 20.6 0.0 3.2
14:58 14.9 14.9 100 1001.0 18.3 ESE 20.6 0.0 3.2
14:59 14.9 14.9 100 1000.9 14.5 SE 20.6 0.0 3.3
15:00 14.9 14.9 100 1001.1 14.5 SE 20.6 0.8 3.3
15:01 14.9 14.9 100 1000.9 14.5 SE 20.6 0.8 3.3
15:02 15.0 15.0 100 1001.0 19.0 S 20.6 0.8 3.3
15:03 15.0 15.0 100 1001.0 15.2 S 19.0 0.8 3.3
15:04 15.0 15.0 100 1001.1 17.4 S 19.0 0.8 3.3
15:05 15.0 15.0 100 1001.1 18.3 S 19.0 0.8 3.3
15:06 15.0 15.0 100 1000.9 16.8 S 19.0 0.8 3.3
15:07 15.0 15.0 100 1001.1 17.4 SSW 19.0 0.8 3.3
15:08 15.1 15.1 100 1001.1 18.3 SE 19.0 0.8 3.3
15:10 15.1 15.1 100 1001.0 22.1 S 22.1 0.0 3.3
15:11 15.1 15.1 100 1001.0 15.9 S 22.1 0.0 3.3
15:12 15.1 15.1 100 1000.9 18.3 SW 22.1 0.0 3.3
15:13 15.1 15.1 100 1000.9 18.3 S 22.1 0.0 3.3
15:14 15.2 15.2 100 1000.9 15.9 S 22.1 0.0 3.4
15:15 15.2 15.2 100 1001.1 15.9 S 22.1 0.8 3.4
15:16 15.2 15.2 100 1000.9 15.9 S 22.1 0.8 3.4
15:17 15.2 15.2 100 1000.7 19.0 S 22.1 0.8 3.4
15:18 15.2 15.2 100 1000.7 13.6 S 22.1 0.8 3.4
15:19 15.2 15.2 100 1000.7 14.5 WSW 22.1 0.8 3.4
15:20 15.2 15.2 100 1001.0 18.3 S 22.1 0.0 3.4
15:21 15.2 15.2 100 1000.8 22.1 S 22.1 0.0 3.4
15:22 15.2 15.2 100 1000.8 19.7 WSW 22.1 0.0 3.4
15:23 15.2 15.2 100 1000.7 19.0 S 22.1 0.0 3.4
15:24 15.2 15.2 100 1000.7 19.0 S 22.1 0.0 3.4
15:25 15.3 15.3 100 1000.9 15.2 SW 22.8 0.0 3.4
15:26 15.3 15.3 100 1000.8 20.6 S 22.8 0.0 3.4
15:27 15.3 15.3 100 1000.8 20.6 S 22.8 0.0 3.4
15:29 15.3 15.3 100 1000.8 17.4 S 22.8 0.0 3.4
15:30 15.3 15.3 100 1000.7 19.7 SW 22.8 0.0 3.4
15:31 15.3 15.3 100 1000.8 19.7 SW 22.8 0.0 3.4
15:32 15.4 15.4 100 1000.6 9.8 S 22.8 0.0 3.4
15:33 15.4 15.4 100 1000.6 9.8 S 22.8 0.0 3.4
15:34 15.4 15.4 100 1000.8 20.6 SSE 22.8 0.0 3.5
15:35 15.4 15.4 100 1000.6 21.3 S 22.8 0.8 3.5
15:36 15.4 15.4 100 1000.7 21.3 S 21.3 0.8 3.5
15:37 15.4 15.4 100 1000.8 21.3 S 21.3 0.8 3.5
15:38 15.4 15.4 100 1000.8 20.6 SW 21.3 0.8 3.5
15:39 15.4 15.4 100 1000.7 17.4 SW 21.3 0.8 3.5
15:40 15.4 15.4 100 1000.8 18.3 S 21.3 0.8 3.6
15:41 15.4 15.4 100 1000.9 20.6 S 21.3 2.3 3.7
15:42 15.4 15.4 100 1001.0 20.6 SW 21.3 2.3 3.7
15:43 15.4 15.4 100 1000.9 20.6 SW 21.3 2.3 3.7
15:44 15.4 15.4 100 1001.0 18.3 W 21.3 2.3 3.7
15:45 15.3 15.3 100 1000.9 17.4 SW 21.3 2.3 3.8
15:47 15.4 15.4 100 1001.1 18.3 WSW 20.6 1.5 3.8
15:48 15.4 15.4 100 1000.9 15.2 SW 20.6 1.5 3.8
15:49 15.4 15.4 100 1001.1 15.2 SW 20.6 1.5 3.8
15:50 15.4 15.4 100 1000.8 20.6 S 20.6 0.8 3.8
15:51 15.4 15.4 100 1001.1 20.6 S 20.6 0.0 3.8
15:52 15.4 15.4 100 1000.7 19.0 SW 20.6 0.0 3.8
15:53 15.4 15.4 100 1000.9 19.0 SW 20.6 0.0 3.8
15:54 15.4 15.4 100 1000.9 18.3 S 20.6 0.0 3.8
15:55 15.4 15.4 100 1000.9 15.9 SW 20.6 0.0 3.8
15:56 15.4 15.4 100 1001.1 15.9 SW 20.6 0.0 3.8
15:57 15.4 15.4 100 1001.0 18.3 SW 20.6 0.8 3.8
15:58 15.4 15.4 100 1000.9 20.6 S 20.6 1.5 3.9
15:59 15.4 15.4 100 1001.0 20.6 S 20.6 1.5 3.9
16:00 15.5 15.5 100 1001.0 20.6 SW 20.6 1.5 3.9
16:01 15.5 15.5 100 1000.9 20.6 SW 20.6 1.5 3.9
16:02 15.5 15.5 100 1000.9 20.6 SW 20.6 0.8 3.9
16:03 15.5 15.5 100 1000.8 20.6 SW 20.6 0.0 3.9
16:04 15.5 15.5 100 1001.2 20.6 SW 20.6 0.0 3.9
16:06 15.8 15.8 100 1001.2 15.2 W 20.6 0.0 3.9
16:07 15.9 15.9 100 1001.0 16.8 W 20.6 0.0 3.9
16:08 15.9 15.9 100 1001.0 13.0 SW 20.6 0.0 3.9
16:09 15.9 15.9 100 1001.0 13.0 SW 20.6 0.0 3.9
16:10 16.0 16.0 100 1001.1 15.2 S 20.6 0.0 3.9
16:11 16.0 16.0 100 1001.1 15.9 SW 20.6 0.0 3.9
16:12 15.9 15.9 100 1001.1 19.0 W 20.6 0.0 3.9
16:13 15.9 15.9 100 1001.1 19.0 W 20.6 0.0 3.9
16:14 15.8 15.8 100 1001.2 15.9 W 20.6 0.0 3.9
16:15 15.8 15.8 100 1001.2 14.5 SW 20.6 0.0 3.9
16:16 15.8 15.8 100 1000.8 16.8 S 19.0 0.0 3.9
16:17 15.8 15.8 100 1001.0 16.8 S 19.0 0.0 3.9
16:18 15.9 15.9 100 1001.2 17.4 WSW 19.0 0.0 3.9
16:19 15.9 15.9 100 1001.2 21.3 SW 21.3 0.0 3.9
16:20 15.8 15.8 100 1001.1 22.8 S 22.8 0.0 3.9
16:22 15.8 15.8 100 1000.9 15.2 S 22.8 0.0 3.9
16:23 15.8 15.8 100 1001.2 15.2 S 22.8 0.0 3.9
16:24 15.7 15.7 100 1001.1 18.3 SW 22.8 0.0 3.9
16:25 15.7 15.7 100 1001.2 18.3 S 22.8 0.0 3.9
16:26 15.7 15.7 100 1000.9 19.0 SW 22.8 0.0 3.9
16:27 15.7 15.7 100 1001.2 15.9 SW 22.8 0.0 3.9
16:28 15.6 15.6 100 1000.9 19.0 SW 22.8 0.0 3.9
16:29 15.6 15.6 100 1001.1 21.3 S 22.8 0.0 3.9
16:30 15.6 15.6 100 1001.0 15.2 SW 22.8 0.0 3.9
16:31 15.6 15.6 100 1001.2 15.2 SW 21.3 0.0 3.9
16:32 15.5 15.5 100 1001.4 14.5 SW 21.3 0.0 3.9
16:33 15.5 15.5 100 1001.1 17.4 SW 21.3 0.0 3.9
16:34 15.5 15.5 100 1001.3 19.0 SW 21.3 0.0 3.9
16:35 15.5 15.5 100 1001.1 19.7 WSW 21.3 0.0 3.9
16:36 15.4 15.4 100 1001.0 18.3 W 21.3 0.0 3.9
16:37 15.4 15.4 100 1001.0 19.0 SW 21.3 0.0 3.9
16:38 15.4 15.4 100 1001.1 15.9 SW 21.3 0.0 3.9
16:39 15.5 15.5 100 1001.0 16.8 SW 19.7 0.0 3.9
16:41 15.6 15.6 100 1001.1 21.3 SW 21.3 0.0 3.9
16:42 15.6 15.6 100 1001.1 21.3 SW 21.3 0.0 3.9
16:43 15.7 15.7 100 1001.1 19.0 SW 21.3 0.0 3.9
16:44 15.8 15.8 100 1001.3 20.6 SW 21.3 0.0 3.9
16:45 15.8 15.8 100 1001.3 20.6 SW 21.3 0.0 3.9
16:46 15.8 15.8 100 1001.2 17.4 SW 21.3 0.0 3.9
16:47 15.7 15.7 100 1001.2 20.6 W 21.3 0.0 3.9
16:48 15.7 15.7 100 1001.2 18.3 S 21.3 0.0 3.9
16:49 15.7 15.7 100 1001.3 22.8 SW 22.8 0.0 3.9
16:50 15.6 15.6 100 1001.2 20.6 SW 22.8 0.0 3.9
16:51 15.6 15.6 100 1001.3 19.0 SW 22.8 0.0 3.9
16:52 15.6 15.6 100 1001.4 19.0 S 22.8 0.0 3.9
16:53 15.6 15.6 100 1001.1 18.3 SW 22.8 0.0 3.9
16:54 15.6 15.6 100 1001.4 13.6 WSW 22.8 0.0 3.9
16:55 15.6 15.6 100 1001.2 17.4 W 22.8 0.0 3.9
16:56 15.6 15.6 100 1001.4 19.7 S 22.8 0.0 3.9
16:58 15.5 15.5 100 1001.1 13.6 SW 22.8 0.0 3.9
16:59 15.5 15.5 100 1001.2 15.9 W 22.8 0.0 3.9
17:00 15.5 15.4 99 1001.1 17.4 SW 20.6 0.0 3.9
17:01 15.5 15.4 99 1001.0 17.4 SW 19.7 0.0 3.9
17:02 15.5 15.4 99 1001.1 17.4 SW 19.7 0.0 3.9
17:03 15.5 15.4 99 1001.0 17.4 SW 19.7 0.0 3.9
17:04 15.5 15.4 99 1001.3 17.4 SW 19.7 0.0 3.9
17:05 15.5 15.4 99 1001.1 17.4 SW 19.7 0.0 3.9
17:06 15.5 15.2 98 1001.3 12.1 WNW 19.7 0.0 3.9
17:07 15.5 15.2 98 1001.2 12.1 S 19.7 0.0 3.9
17:08 15.5 15.2 98 1001.1 8.3 SW 19.7 0.0 3.9
17:09 15.5 15.0 97 1001.2 15.2 SW 19.7 0.0 3.9
17:10 15.6 15.3 98 1001.3 15.2 WSW 19.7 0.0 3.9
17:11 15.7 15.4 98 1001.3 18.3 W 19.7 0.0 3.9
17:12 15.7 15.4 98 1001.2 18.3 W 19.7 0.0 3.9
17:13 15.7 15.4 98 1001.2 19.7 SW 19.7 0.0 3.9
17:15 15.7 15.4 98 1001.2 22.1 SW 22.1 0.0 3.9
17:16 15.7 15.2 97 1001.3 17.4 SW 22.1 0.0 3.9
17:18 15.7 15.2 97 1001.2 20.6 SW 22.1 0.0 3.9
17:19 15.7 15.2 97 1001.3 20.6 SE 22.1 0.0 3.9
17:20 15.7 15.1 96 1001.2 15.2 SW 22.1 0.0 3.9
17:21 15.7 15.1 96 1001.1 16.8 SW 22.1 0.0 3.9
17:22 15.7 15.1 96 1001.2 20.6 WSW 22.1 0.0 3.9
17:23 15.7 15.1 96 1001.3 18.3 W 22.1 0.0 3.9
17:24 15.7 15.1 96 1001.3 18.3 SW 22.1 0.0 3.9
17:25 15.6 15.0 96 1001.4 20.6 W 22.1 0.0 3.9
17:26 15.5 14.9 96 1001.2 19.0 W 23.5 0.0 4.0
17:27 15.5 14.9 96 1001.2 19.0 W 23.5 0.8 4.0
17:28 15.4 14.8 96 1001.2 15.9 N 23.5 0.8 4.0
17:29 15.3 14.5 95 1001.7 15.2 SW 23.5 0.8 4.0
17:30 15.2 14.4 95 1001.5 21.3 W 23.5 0.8 4.0
17:31 15.2 14.4 95 1001.5 21.3 SW 23.5 0.8 4.0
17:32 15.1 14.3 95 1001.5 22.1 SW 23.5 0.0 4.0
17:34 15.1 14.5 96 1001.6 21.3 SW 23.5 0.0 4.0
17:35 15.1 14.5 96 1001.4 15.9 SW 23.5 0.0 4.0
17:36 15.2 14.6 96 1001.6 19.0 W 23.5 0.0 4.0
17:37 15.2 14.7 97 1001.5 19.0 W 23.5 0.0 4.0
17:38 15.1 14.6 97 1001.4 19.0 WNW 23.5 0.0 4.0
17:39 15.1 14.6 97 1001.6 13.6 SW 23.5 0.0 4.0
17:40 15.1 14.6 97 1001.6 16.8 SW 23.5 0.0 4.0
17:41 15.1 14.6 97 1001.5 17.4 W 23.5 0.0 4.0
17:42 15.1 14.6 97 1001.8 21.3 SW 23.5 0.0 4.0
17:43 15.1 14.6 97 1001.8 21.3 SW 21.3 0.0 4.0
17:44 15.0 14.5 97 1001.6 14.5 W 21.3 0.0 4.0
17:45 15.0 14.5 97 1001.4 13.0 W 21.3 0.0 4.0
17:46 15.0 14.5 97 1001.8 17.4 W 21.3 0.0 4.0
17:47 15.0 14.5 97 1001.7 15.9 WSW 21.3 0.0 4.0
17:48 15.0 14.5 97 1001.7 15.2 W 21.3 0.0 4.0
17:49 15.0 14.5 97 1001.9 19.0 S 21.3 0.0 4.0
17:50 15.0 14.4 96 1001.6 19.0 WSW 21.3 0.0 4.0
17:52 15.0 14.4 96 1001.9 22.8 SW 22.8 0.0 4.0
17:53 14.9 14.3 96 1001.9 20.6 WNW 22.8 0.0 4.0
17:54 14.9 14.1 95 1001.7 17.4 W 22.8 0.0 4.0
17:55 14.9 14.1 95 1001.6 18.3 W 22.8 0.0 4.0
17:56 14.9 14.1 95 1001.6 18.3 W 22.8 0.0 4.0
17:57 14.9 14.1 95 1001.7 13.6 W 22.8 0.0 4.0
17:58 14.9 13.9 94 1001.8 14.5 WNW 22.8 0.0 4.0
17:59 14.9 13.9 94 1001.8 15.2 NW 22.8 0.0 4.0
18:00 14.9 13.9 94 1001.9 13.0 WSW 22.8 0.0 4.0
18:01 14.9 13.9 94 1002.0 13.0 WSW 22.8 0.0 4.0
18:02 14.9 13.9 94 1001.7 13.0 WSW 22.8 0.0 4.0
18:03 14.9 13.9 94 1001.9 13.0 WSW 22.8 0.0 4.0
18:04 14.9 13.9 94 1001.9 13.0 WSW 18.3 0.0 4.0
18:05 14.9 13.9 94 1001.6 13.0 WSW 18.3 0.0 4.0
18:06 14.9 13.8 93 1001.9 16.8 SW 22.1 0.0 4.0
18:07 14.8 13.7 93 1001.8 15.2 SW 22.1 0.0 4.0
18:09 14.9 13.6 92 1001.8 11.4 SW 22.1 0.0 4.0
18:10 14.9 13.6 92 1001.7 15.2 NW 22.1 0.0 4.0
18:11 14.9 13.6 92 1001.6 12.1 W 22.1 0.0 4.0
18:12 14.9 13.6 92 1001.7 12.1 W 22.1 0.0 4.0
18:13 14.9 13.5 91 1001.9 13.6 NW 22.1 0.0 4.0
18:14 15.0 13.5 91 1001.6 12.1 SW 22.1 0.0 4.0
18:15 15.0 13.5 91 1001.9 10.7 SW 22.1 0.0 4.0
18:16 15.0 13.5 91 1001.8 14.5 W 16.8 0.0 4.0
18:17 15.0 13.4 90 1001.9 15.9 SW 15.9 0.0 4.0
18:18 15.0 13.4 90 1002.0 19.0 SW 19.0 0.0 4.0
18:19 15.0 13.4 90 1001.9 17.4 W 19.0 0.0 4.0
18:20 15.0 13.2 89 1002.1 15.2 N 19.0 0.0 4.0
18:21 15.0 13.2 89 1002.1 15.2 W 19.0 0.0 4.0
18:22 15.0 13.0 88 1002.1 17.4 SW 19.0 0.0 4.0
18:23 15.1 13.1 88 1002.1 16.8 SW 19.0 0.0 4.0
18:24 15.2 13.1 87 1002.1 19.7 SW 19.7 0.0 4.0
18:26 15.3 13.0 86 1001.9 13.0 SW 19.7 0.0 4.0
18:27 15.4 12.9 85 1002.0 13.0 SW 19.7 0.0 4.0
18:28 15.5 13.0 85 1002.0 16.8 W 20.6 0.0 4.0
18:29 15.5 13.0 85 1002.0 16.8 W 20.6 0.0 4.0
18:30 15.5 12.8 84 1002.1 17.4 NW 20.6 0.0 4.0
18:31 15.5 12.8 84 1002.0 19.0 W 20.6 0.0 4.0
18:32 15.4 12.5 83 1001.9 16.8 SW 20.6 0.0 4.0
18:33 15.3 12.4 83 1002.0 13.6 W 20.6 0.0 4.0
18:34 15.2 12.3 83 1002.0 15.9 SW 20.6 0.0 4.0
18:35 15.2 12.3 83 1001.8 15.9 W 20.6 0.0 4.0
18:36 15.1 12.2 83 1001.9 13.0 W 20.6 0.0 4.0
18:37 15.1 12.2 83 1001.9 12.1 W 20.6 0.0 4.0
18:38 15.0 12.3 84 1001.9 14.5 N 20.6 0.0 4.0
18:39 15.0 12.3 84 1001.7 11.4 W 19.0 0.0 4.0
18:40 15.0 12.3 84 1002.0 14.5 W 19.0 0.0 4.0
18:41 15.0 12.3 84 1002.0 14.5 SW 16.8 0.0 4.0
18:43 15.0 12.5 85 1001.9 13.0 W 15.9 0.0 4.0
18:44 14.9 12.4 85 1002.1 13.6 W 15.9 0.0 4.0
18:45 14.8 12.3 85 1002.0 9.8 W 15.9 0.0 4.0
18:46 14.8 12.3 85 1002.1 9.8 SW 15.9 0.0 4.0
18:47 14.8 12.3 85 1002.2 9.8 SW 15.9 0.0 4.0
18:48 14.8 12.5 86 1002.3 17.4 S 17.4 0.0 4.0
18:49 14.7 12.4 86 1002.2 17.4 SW 17.4 0.0 4.0
18:50 14.7 12.4 86 1002.2 15.2 SW 17.4 0.0 4.0
18:51 14.6 12.3 86 1002.1 13.0 SW 17.4 0.0 4.0
18:52 14.6 12.3 86 1002.2 17.4 SW 17.4 0.0 4.0
18:53 14.6 12.3 86 1002.2 17.4 NW 17.4 0.0 4.0
18:54 14.5 12.4 87 1002.2 12.1 SW 17.4 0.0 4.0
18:55 14.5 12.4 87 1002.3 9.8 SW 17.4 0.0 4.0
18:56 14.5 12.4 87 1002.1 9.8 SW 17.4 0.0 4.0
18:57 14.5 12.4 87 1002.1 13.0 S 17.4 0.0 4.0
18:58 14.4 12.4 88 1002.0 9.8 SSW 17.4 0.0 4.0
18:59 14.4 12.4 88 1002.4 11.4 W 17.4 0.0 4.0
19:00 14.4 12.4 88 1002.4 11.4 WSW 17.4 0.0 4.0
19:02 14.4 12.4 88 1002.3 11.4 WSW 17.4 0.0 4.0
19:03 14.4 12.4 88 1002.1 11.4 WSW 15.9 0.0 4.0
19:04 14.4 12.4 88 1002.3 11.4 WSW 13.0 0.0 4.0
19:05 14.5 12.7 89 1002.2 17.4 S 17.4 0.0 4.0
19:06 14.5 12.9 90 1002.3 15.9 W 17.4 0.0 4.0
19:07 14.5 12.9 90 1002.4 15.2 SW 17.4 0.0 4.0
19:08 14.5 12.9 90 1002.5 15.2 SW 17.4 0.0 4.0
19:09 14.5 12.9 90 1002.3 17.4 S 17.4 0.0 4.0
19:10 14.4 12.8 90 1002.4 15.9 SW 17.4 0.0 4.0
19:11 14.4 12.8 90 1002.4 15.9 SW 17.4 0.0 4.0
19:12 14.4 12.8 90 1002.2 10.7 SW 17.4 0.0 4.0
19:13 14.3 12.7 90 1002.2 13.6 SW 17.4 0.0 4.0
19:14 14.3 12.7 90 1002.4 11.4 S 17.4 0.0 4.0
19:15 14.3 12.7 90 1002.3 15.2 S 17.4 0.0 4.0
19:16 14.2 12.8 91 1002.4 12.1 SW 17.4 0.0 4.0
19:17 14.2 12.8 91 1002.6 13.6 SW 17.4 0.0 4.0
19:19 14.2 12.8 91 1002.3 16.8 SW 16.8 0.0 4.0
19:20 14.1 12.7 91 1002.2 15.9 SW 16.8 0.0 4.0
19:21 14.1 12.7 91 1002.4 14.5 S 16.8 0.0 4.0
19:22 14.1 12.7 91 1002.6 16.8 SW 16.8 0.0 4.0
19:23 14.1 12.7 91 1002.6 12.1 S 16.8 0.0 4.0
19:25 14.1 12.8 92 1002.7 16.8 W 17.4 0.0 4.0
19:26 14.1 12.8 92 1002.6 18.3 SW 18.3 0.0 4.0
19:27 14.1 12.8 92 1002.7 23.5 S 23.5 0.0 4.0
19:28 14.1 12.8 92 1002.6 16.8 S 23.5 0.0 4.0
19:29 14.1 12.8 92 1002.6 16.8 S 23.5 0.0 4.0
19:30 14.1 12.8 92 1002.5 14.5 WSW 23.5 0.0 4.0
19:31 14.1 12.8 92 1002.7 14.5 SW 23.5 0.0 4.0
19:32 14.1 12.8 92 1002.8 14.5 S 23.5 0.0 4.0
19:33 14.0 12.7 92 1002.5 14.5 SW 23.5 0.0 4.0
19:34 14.0 12.7 92 1002.6 13.0 S 23.5 0.0 4.0
19:35 14.0 12.7 92 1002.6 13.6 SW 23.5 0.0 4.0
19:36 14.0 12.7 92 1003.0 13.6 SW 23.5 0.0 4.0
19:37 14.0 12.7 92 1002.8 17.4 WSW 23.5 0.0 4.0
19:38 14.0 12.7 92 1002.7 15.9 SW 17.4 0.0 4.0
19:39 14.0 12.7 92 1002.8 19.0 SW 19.0 0.0 4.0
19:40 14.0 12.7 92 1002.8 20.6 SW 21.3 0.0 4.0
19:42 14.0 12.7 92 1002.7 15.2 SW 21.3 0.0 4.0
19:43 14.0 12.7 92 1002.8 15.2 W 21.3 0.0 4.0
19:44 14.0 12.7 92 1003.0 9.8 SW 21.3 0.0 4.0
19:45 14.0 12.7 92 1002.9 19.0 SW 21.3 0.0 4.0
19:46 14.1 12.7 91 1002.6 17.4 W 21.3 0.0 4.0
19:47 14.1 12.7 91 1002.8 17.4 NW 21.3 0.0 4.0
19:48 14.2 12.8 91 1002.8 10.7 SW 21.3 0.0 4.0
19:49 14.2 12.8 91 1002.8 9.2 W 21.3 0.0 4.0
19:50 14.3 12.9 91 1002.7 13.6 SW 21.3 0.0 4.0
19:51 14.3 12.9 91 1002.9 15.2 SW 19.0 0.0 4.0
19:52 14.3 12.9 91 1002.9 18.3 SW 19.0 0.0 4.0
19:53 14.3 12.9 91 1002.7 13.0 W 19.0 0.0 4.0
19:54 14.3 12.7 90 1002.7 21.3 W 21.3 0.0 4.0
19:55 14.2 12.6 90 1002.9 16.8 SW 21.3 0.0 4.0
19:56 14.2 12.6 90 1003.2 19.7 SW 21.3 0.0 4.0
19:57 14.1 12.5 90 1003.0 19.0 SW 21.3 0.0 4.0
19:59 14.1 12.3 89 1003.1 14.5 SW 21.3 0.0 4.0
20:00 14.0 12.2 89 1002.8 17.4 SW 21.3 0.0 4.0
20:01 14.0 12.2 89 1003.1 17.4 SW 21.3 0.0 4.0
20:02 14.0 12.2 89 1003.0 17.4 SW 21.3 0.0 4.0
20:03 14.0 12.2 89 1003.2 17.4 SW 21.3 0.0 4.0
20:04 14.0 12.2 89 1002.9 17.4 SW 21.3 0.0 4.0
20:05 14.0 12.2 89 1003.0 17.4 SW 19.7 0.0 4.0
20:06 13.8 12.0 89 1002.9 15.2 NW 19.7 0.0 4.0
20:07 13.8 12.0 89 1003.2 9.8 SW 19.0 0.0 4.0
20:08 13.8 12.0 89 1003.0 13.0 SW 17.4 0.0 4.0
20:09 13.8 12.0 89 1003.1 14.5 S 17.4 0.0 4.0
20:10 13.8 12.0 89 1003.0 15.2 W 17.4 0.0 4.0
20:11 13.8 12.0 89 1003.1 15.2 NW 17.4 0.0 4.0
20:12 13.8 12.0 89 1003.1 12.1 SW 17.4 0.0 4.0
20:13 13.8 12.0 89 1002.9 12.1 S 17.4 0.0 4.0
20:14 13.8 12.0 89 1003.0 13.6 SW 17.4 0.0 4.0
20:15 13.8 12.0 89 1003.2 15.9 W 17.4 0.0 4.0
20:17 13.8 12.2 90 1003.1 13.0 S 15.9 0.0 4.0
20:18 13.8 12.2 90 1003.3 12.1 SW 15.9 0.0 4.0
20:19 13.8 12.2 90 1003.2 19.0 W 19.0 0.0 4.0
20:20 13.8 12.2 90 1003.3 11.4 S 19.0 0.0 4.0
20:21 13.8 12.2 90 1003.3 11.4 S 19.0 0.0 4.0
20:22 13.8 12.0 89 1003.2 15.2 SW 19.0 0.0 4.0
20:23 13.8 12.0 89 1003.3 11.4 SW 19.0 0.0 4.0
20:24 13.8 12.0 89 1003.0 17.4 SW 19.0 0.0 4.0
20:25 13.8 12.0 89 1003.3 17.4 SW 19.0 0.0 4.0
20:26 13.7 11.9 89 1003.3 15.2 SW 19.0 0.0 4.0
20:27 13.7 11.9 89 1003.1 11.4 SW 19.0 0.0 4.0
20:28 13.7 11.9 89 1003.2 13.0 S 19.0 0.0 4.0
20:29 13.6 11.8 89 1003.2 13.0 SW 19.0 0.0 4.0
20:30 13.6 11.8 89 1003.1 9.8 SW 19.0 0.0 4.0
20:31 13.6 11.8 89 1003.2 13.6 SW 17.4 0.0 4.0
20:32 13.5 11.7 89 1003.3 15.2 SW 17.4 0.0 4.0
20:33 13.5 11.7 89 1003.4 14.5 SW 17.4 0.0 4.0
20:35 13.5 11.7 89 1003.4 13.0 SW 16.8 0.0 4.0
20:36 13.5 11.7 89 1003.4 13.6 N 15.9 0.0 4.0
20:37 13.4 11.6 89 1003.3 10.7 S 15.9 0.0 4.0
20:38 13.4 11.6 89 1003.2 11.4 SW 15.9 0.0 4.0
20:39 13.4 11.6 89 1003.4 16.8 S 16.8 0.0 4.0
20:40 13.4 11.6 89 1003.2 16.8 SW 16.8 0.0 4.0
20:41 13.4 11.6 89 1003.3 10.7 WSW 16.8 0.0 4.0
20:42 13.4 11.6 89 1003.4 10.7 SW 16.8 0.0 4.0
20:43 13.3 11.5 89 1003.4 9.2 SW 16.8 0.0 4.0
20:44 13.3 11.7 90 1003.6 10.7 S 16.8 0.0 4.0
20:45 13.3 11.7 90 1003.4 10.7 SW 16.8 0.0 4.0
20:46 13.3 11.7 90 1003.4 10.7 W 16.8 0.0 4.0
20:47 13.3 11.7 90 1003.4 10.7 SW 16.8 0.0 4.0
20:48 13.3 11.7 90 1003.5 14.5 S 16.8 0.0 4.0
20:49 13.3 11.7 90 1003.6 11.4 SW 16.8 0.0 4.0
20:50 13.3 11.7 90 1003.4 11.4 SW 14.5 0.0 4.0
20:51 13.3 11.7 90 1003.4 13.0 SSW 14.5 0.0 4.0
20:52 13.3 11.7 90 1003.6 13.0 SW 15.2 0.0 4.0
20:54 13.3 11.7 90 1003.8 13.0 SW 15.2 0.0 4.0
20:55 13.3 11.7 90 1003.3 11.4 W 15.2 0.0 4.0
20:56 13.3 11.7 90 1003.7 7.6 S 15.2 0.0 4.0
20:57 13.3 11.7 90 1003.6 12.1 SW 15.2 0.0 4.0
20:58 13.3 11.7 90 1003.6 11.4 SW 15.2 0.0 4.0
20:59 13.3 11.7 90 1003.8 11.4 SW 15.2 0.0 4.0
21:00 13.3 11.7 90 1003.6 15.9 SW 15.9 0.0 4.0
21:01 13.3 11.7 90 1003.6 15.9 SW 15.9 0.0 4.0
21:02 13.3 11.7 90 1003.7 15.9 SW 15.9 0.0 4.0
21:03 13.3 11.7 90 1003.8 15.9 SW 15.9 0.0 4.0
21:04 13.3 11.7 90 1003.4 15.9 SW 15.9 0.0 4.0
21:05 13.3 11.7 90 1003.7 15.9 SW 15.9 0.0 4.0
21:06 13.3 11.7 90 1003.7 15.9 SW 15.9 0.0 4.0
21:07 13.1 11.5 90 1003.7 13.0 SW 15.9 0.0 4.0
21:08 13.1 11.5 90 1003.8 15.9 S 15.9 0.0 4.0
21:09 13.1 11.5 90 1003.8 15.9 W 15.9 0.0 4.0
21:10 13.0 11.4 90 1003.8 11.4 SW 15.9 0.0 4.0
21:11 13.0 11.4 90 1003.8 10.7 SW 15.9 0.0 4.0
21:13 13.0 11.4 90 1003.7 11.4 WNW 15.9 0.0 4.0
21:14 12.9 11.3 90 1003.6 11.4 SW 15.9 0.0 4.0
21:15 12.9 11.3 90 1003.8 9.8 SW 15.9 0.0 4.0
21:16 12.9 11.3 90 1003.9 9.2 S 15.9 0.0 4.0
21:17 12.9 11.3 90 1003.9 9.2 S 15.9 0.0 4.0
21:18 12.8 11.2 90 1003.9 10.7 W 15.9 0.0 4.0
21:19 12.8 11.2 90 1004.0 10.7 SW 15.9 0.0 4.0
21:20 12.8 11.2 90 1003.9 11.4 SW 12.1 0.0 4.0
21:21 12.8 11.2 90 1004.0 14.5 W 14.5 0.0 4.0
21:22 12.8 11.2 90 1003.9 14.5 W 14.5 0.0 4.0
21:23 12.8 11.2 90 1003.6 8.3 W 14.5 0.0 4.0
21:24 12.8 11.4 91 1003.7 13.0 SW 14.5 0.0 4.0
21:25 12.8 11.4 91 1003.7 13.0 SW 14.5 0.0 4.0
21:26 12.8 11.4 91 1003.9 9.8 W 14.5 0.0 4.0
21:27 12.8 11.4 91 1003.9 9.8 W 14.5 0.0 4.0
21:28 12.7 11.3 91 1003.9 13.6 SW 14.5 0.0 4.0
21:29 12.7 11.3 91 1004.0 13.6 SW 14.5 0.0 4.0
21:30 12.7 11.3 91 1004.0 12.1 SW 14.5 0.0 4.0
21:31 12.7 11.3 91 1003.9 13.0 SW 14.5 0.0 4.0
21:32 12.7 11.3 91 1004.1 9.8 SW 14.5 0.0 4.0
21:33 12.7 11.3 91 1004.2 11.4 SW 13.6 0.0 4.0
21:34 12.7 11.3 91 1004.2 15.2 WNW 15.2 0.0 4.0
21:35 12.7 11.3 91 1004.2 15.2 SW 15.2 0.0 4.0
21:36 12.7 11.3 91 1004.2 11.4 SW 15.2 0.0 4.0
21:37 12.6 11.2 91 1004.2 11.4 S 15.2 0.0 4.0
21:38 12.6 11.2 91 1004.2 9.2 W 15.2 0.0 4.0
21:40 12.6 11.2 91 1004.3 14.5 NW 15.2 0.0 4.0
21:41 12.6 11.2 91 1004.1 11.4 SW 15.2 0.0 4.0
21:42 12.6 11.0 90 1004.3 15.9 SW 15.9 0.0 4.0
21:43 12.6 11.0 90 1004.3 15.9 S 15.9 0.0 4.0
21:44 12.6 11.0 90 1004.3 12.1 NW 15.9 0.0 4.0
21:45 12.6 11.0 90 1004.1 10.7 SW 15.9 0.0 4.0
21:46 12.6 11.0 90 1004.2 15.2 SW 15.9 0.0 4.0
21:47 12.5 10.9 90 1004.2 15.2 SW 15.9 0.0 4.0
21:48 12.5 10.9 90 1004.3 14.5 S 15.9 0.0 4.0
21:49 12.5 10.9 90 1004.4 11.4 SW 15.9 0.0 4.0
21:50 12.5 10.9 90 1004.4 12.1 SW 15.9 0.0 4.0
21:51 12.5 10.9 90 1004.4 11.4 SW 15.9 0.0 4.0
21:52 12.5 10.9 90 1004.3 11.4 SW 15.9 0.0 4.0
21:53 12.5 10.9 90 1004.4 7.6 SW 15.2 0.0 4.0
21:54 12.4 11.1 92 1004.6 9.8 WSW 15.2 0.0 4.0
21:55 12.4 11.1 92 1004.5 14.5 SW 15.2 0.0 4.0
21:56 12.4 11.1 92 1004.4 9.8 W 15.2 0.0 4.0
21:59 12.4 11.1 92 1004.4 10.7 W 14.5 0.0 4.0
22:00 12.4 11.1 92 1004.6 9.8 W 14.5 0.0 4.0
22:01 12.4 11.1 92 1004.6 9.8 SW 14.5 0.0 4.0
22:02 12.4 11.1 92 1004.4 9.2 W 14.5 0.0 4.0
22:03 12.4 11.1 92 1004.5 9.2 SW 14.5 0.0 4.0
22:04 12.4 11.1 92 1004.6 9.2 SW 14.5 0.0 4.0
22:05 12.3 11.0 92 1004.6 9.2 SW 14.5 0.0 4.0
22:06 12.3 11.0 92 1004.7 9.8 WSW 14.5 0.0 4.0
22:07 12.3 11.0 92 1004.6 8.3 W 12.1 0.0 4.0
22:08 12.3 11.0 92 1004.5 8.3 SW 12.1 0.0 4.0
22:09 12.3 11.0 92 1004.7 9.8 SW 12.1 0.0 4.0
22:10 12.3 11.0 92 1004.7 7.6 SW 12.1 0.0 4.0
22:11 12.3 11.2 93 1004.5 8.3 W 10.7 0.0 4.0
22:12 12.3 11.2 93 1004.6 11.4 W 11.4 0.0 4.0
22:13 12.3 11.2 93 1004.5 11.4 SW 11.4 0.0 4.0
22:14 12.2 11.1 93 1004.5 15.2 SW 15.2 0.0 4.0
22:15 12.2 11.1 93 1004.7 10.7 S 15.2 0.0 4.0
22:17 12.2 11.1 93 1004.7 13.0 WSW 15.2 0.0 4.0
22:18 12.2 11.1 93 1004.6 10.7 SW 15.2 0.0 4.0
22:19 12.2 11.1 93 1004.5 9.2 SW 15.2 0.0 4.0
22:20 12.2 11.1 93 1004.7 8.3 SW 15.2 0.0 4.0
22:21 12.2 11.1 93 1004.7 8.3 SW 15.2 0.0 4.0
22:22 12.2 11.1 93 1004.7 11.4 W 15.2 0.0 4.0
22:23 12.2 11.1 93 1004.6 9.2 W 15.2 0.0 4.0
22:24 12.2 11.1 93 1004.8 13.0 SW 15.2 0.0 4.0
22:25 12.1 11.0 93 1004.8 9.2 SW 13.0 0.0 4.0
22:26 12.1 11.0 93 1004.7 8.3 W 13.0 0.0 4.0
22:27 12.1 11.0 93 1004.6 9.2 SW 13.0 0.0 4.0
22:28 12.1 11.0 93 1004.5 9.2 SW 13.0 0.0 4.0
22:29 12.1 11.0 93 1004.8 9.2 WSW 13.0 0.0 4.0
22:30 12.0 10.9 93 1004.8 7.6 SW 13.0 0.0 4.0
22:31 12.0 10.9 93 1004.9 10.7 SW 13.0 0.0 4.0
22:32 12.0 10.9 93 1004.8 9.2 SW 13.0 0.0 4.0
22:34 12.0 10.9 93 1004.8 9.2 SW 10.7 0.0 4.0
22:35 12.0 10.9 93 1004.9 9.2 SW 10.7 0.0 4.0
22:36 12.0 10.9 93 1004.8 9.2 SW 10.7 0.0 4.0
22:37 12.1 11.0 93 1004.9 13.0 SSW 13.0 0.0 4.0
22:38 12.1 11.0 93 1004.8 13.0 SSW 13.0 0.0 4.0
22:39 12.1 11.0 93 1004.8 9.8 S 13.0 0.0 4.0
22:40 12.1 11.0 93 1005.0 9.8 SW 13.0 0.0 4.0
22:41 12.1 11.0 93 1004.7 12.1 SW 13.0 0.0 4.0
22:42 12.1 11.0 93 1004.9 16.8 SW 17.4 0.0 4.0
22:43 12.2 11.3 94 1004.8 15.2 SW 17.4 0.0 4.0
22:44 12.2 11.3 94 1004.8 14.5 SW 17.4 0.8 4.0
22:45 12.2 11.3 94 1004.8 12.1 W 17.4 0.8 4.0
22:46 12.2 11.3 94 1004.9 13.0 SW 17.4 0.8 4.0
22:47 12.2 11.3 94 1004.8 12.1 SW 17.4 0.8 4.0
22:48 12.2 11.3 94 1005.0 10.7 SW 17.4 0.8 4.0
22:49 12.2 11.3 94 1004.8 9.8 SW 17.4 0.0 4.0
22:50 12.2 11.4 95 1004.8 9.8 SW 17.4 0.0 4.0
22:53 12.2 11.4 95 1005.0 9.8 SSW 14.5 0.0 4.0
22:54 12.2 11.4 95 1005.0 10.7 SW 13.0 0.0 4.0
22:55 12.1 11.3 95 1004.8 10.7 W 13.0 0.0 4.0
22:56 12.1 11.3 95 1004.9 13.6 NW 13.6 0.0 4.0
22:57 12.1 11.3 95 1005.0 10.7 SW 13.6 0.0 4.0
22:58 12.1 11.3 95 1004.8 8.3 SW 13.6 0.0 4.0
22:59 12.1 11.3 95 1004.9 7.6 SW 13.6 0.0 4.0
23:00 12.1 11.3 95 1004.8 7.6 SW 13.6 0.0 4.0
23:01 12.1 11.3 95 1004.8 7.6 SW 13.6 0.0 4.0
23:02 12.1 11.3 95 1004.9 7.6 SW 13.6 0.0 4.0
23:03 12.1 11.3 95 1004.8 7.6 SW 13.6 0.0 4.0
23:04 12.1 11.3 95 1004.8 7.6 SW 13.6 0.0 4.0
23:05 12.1 11.3 95 1005.0 7.6 SW 13.6 0.0 4.0
23:06 12.1 11.5 96 1004.9 6.9 SW 10.7 0.0 4.0
23:07 12.1 11.5 96 1004.9 8.3 SW 9.2 0.0 4.0
23:08 12.1 11.5 96 1004.9 8.3 SW 8.3 0.0 4.0
23:10 12.1 11.5 96 1004.8 9.2 WSW 9.2 0.0 4.0
23:11 12.1 11.5 96 1005.2 9.8 SW 9.8 0.0 4.0
23:12 12.1 11.6 97 1005.2 11.4 SW 11.4 0.0 4.0
23:13 12.1 11.6 97 1005.1 12.1 S 12.1 0.0 4.0
23:14 12.1 11.6 97 1005.1 12.1 S 12.1 0.0 4.0
23:15 12.2 11.7 97 1005.1 16.8 W 16.8 0.0 4.0
23:16 12.2 11.7 97 1004.9 15.9 SW 16.8 0.0 4.0
23:17 12.2 11.7 97 1005.2 15.9 SW 16.8 0.0 4.0
23:18 12.2 11.7 97 1005.1 11.4 SW 16.8 0.8 4.1
23:19 12.1 11.6 97 1005.0 12.1 SW 16.8 0.8 4.1
23:20 12.1 11.6 97 1005.0 12.1 SW 16.8 0.8 4.1
23:21 12.1 11.6 97 1004.8 13.0 SW 16.8 0.8 4.1
23:22 12.0 11.5 97 1004.9 13.0 SW 16.8 0.8 4.1
23:23 12.0 11.5 97 1005.2 8.3 SW 16.8 0.0 4.1
23:24 12.0 11.4 96 1004.9 12.1 SW 16.8 0.0 4.1
23:25 12.0 11.4 96 1005.0 9.2 SW 16.8 0.0 4.1
23:26 11.9 11.3 96 1005.2 9.2 W 15.9 0.0 4.1
23:27 11.9 11.3 96 1005.1 9.8 SW 15.9 0.0 4.1
23:28 11.8 11.2 96 1005.2 12.1 S 13.0 0.0 4.1
23:29 11.8 11.2 96 1004.9 12.1 S 13.0 0.0 4.1
23:30 11.8 11.0 95 1005.1 12.1 SW 13.0 0.0 4.1
23:31 11.8 11.0 95 1005.0 9.8 SW 13.0 0.0 4.1
23:32 11.8 11.0 95 1005.1 9.2 SW 13.0 0.0 4.1
23:33 11.7 10.9 95 1005.1 10.7 SW 12.1 0.0 4.1
23:35 11.7 10.9 95 1005.0 9.8 SW 12.1 0.0 4.1
23:36 11.7 10.9 95 1005.0 7.6 SW 12.1 0.0 4.1
23:37 11.7 10.9 95 1005.0 7.6 S 12.1 0.0 4.1
23:38 11.7 10.9 95 1004.9 7.6 S 12.1 0.0 4.1
23:39 11.7 10.9 95 1004.9 7.6 S 12.1 0.0 4.1
23:40 11.7 10.9 95 1005.0 10.7 S 12.1 0.0 4.1
23:41 11.7 10.9 95 1005.1 8.3 SW 10.7 0.0 4.1
23:42 11.7 10.9 95 1005.3 10.7 SW 10.7 0.0 4.1
23:43 11.7 10.9 95 1004.9 6.0 SW 10.7 0.0 4.1
23:44 11.7 10.9 95 1005.1 6.0 SW 10.7 0.0 4.1
23:45 11.7 11.1 96 1005.0 6.9 SW 10.7 0.0 4.1
23:46 11.7 11.1 96 1005.0 9.8 S 10.7 0.0 4.1
23:47 11.7 11.1 96 1005.1 9.8 S 10.7 0.0 4.1
23:48 11.7 11.1 96 1005.0 8.3 SW 10.7 0.0 4.2
23:49 11.8 11.2 96 1005.0 9.2 SW 10.7 1.5 4.3
23:50 11.8 11.2 96 1005.2 9.2 SW 10.7 2.3 4.3
23:51 11.8 11.2 96 1005.1 11.4 W 11.4 2.3 4.3
23:52 11.8 11.3 97 1005.2 10.7 SW 12.1 2.3 4.3
23:54 11.8 11.3 97 1005.1 9.8 SW 12.1 1.5 4.3
23:55 11.9 11.4 97 1005.2 9.2 W 12.1 0.8 4.3
23:56 11.9 11.4 97 1005.0 13.6 SW 13.6 0.8 4.4
23:57 11.9 11.6 98 1005.1 16.8 W 16.8 1.5 4.4
23:58 11.9 11.6 98 1005.0 13.6 SW 16.8 0.8 4.5
23:59 11.9 11.6 98 1005.1 9.8 SW 16.8 1.5 4.5

 

 

UK - WEATHER STATION TOPSITES - UK World Weather Websites

Copyright © Carnkie Weather 2009 - 2022.